Wetterdaten: Freitag, 13.01.2017
Datum Zeit Temp. Aussen Temp. o. S. +5cm Feuchte Auss BlattFeu 1 Luftdruck Regen Sonnenschein Regendauer Solar Windben Empfang
13.01.2017 00:00 3,3 C 3,3 C 2,2 C 97 % 15 lf 981,0 hPa 0,0 l/m 0 min 2 min 0 W/m 25,1 km/h (4 Bft) 93,62 %
13.01.2017 00:02 3,3 C 3,3 C 2,2 C 97 % 15 lf 980,9 hPa 0,0 l/m 0 min 2 min 0 W/m 20,9 km/h (4 Bft) 11,76 %
13.01.2017 00:06 3,3 C 3,3 C 2,2 C 97 % 15 lf 980,5 hPa 0,2 l/m 0 min 2 min 0 W/m 27,2 km/h (4 Bft) 86,54 %
13.01.2017 00:08 3,3 C 3,3 C 2,2 C 97 % 15 lf 980,6 hPa 0,0 l/m 0 min 2 min 0 W/m 20,9 km/h (4 Bft) 93,62 %
13.01.2017 00:10 3,3 C 3,3 C 2,2 C 97 % 15 lf 980,4 hPa 0,0 l/m 0 min 2 min 0 W/m 29,3 km/h (5 Bft) 95,74 %
13.01.2017 00:12 3,3 C 3,3 C 2,2 C 97 % 15 lf 980,5 hPa 0,0 l/m 0 min 2 min 0 W/m 29,3 km/h (5 Bft) 97,87 %
13.01.2017 00:14 3,4 C 3,3 C 2,2 C 97 % 15 lf 980,4 hPa 0,0 l/m 0 min 2 min 0 W/m 33,5 km/h (5 Bft) 95,65 %
13.01.2017 00:16 3,4 C 3,3 C 2,2 C 97 % 15 lf 980,5 hPa 0,0 l/m 0 min 2 min 0 W/m 29,3 km/h (5 Bft) 95,74 %
13.01.2017 00:18 3,4 C 3,3 C 2,2 C 97 % 15 lf 980,3 hPa 0,0 l/m 0 min 2 min 0 W/m 29,3 km/h (5 Bft) 97,87 %
13.01.2017 00:20 3,4 C 3,3 C 2,2 C 97 % 15 lf 980,2 hPa 0,0 l/m 0 min 2 min 0 W/m 27,2 km/h (4 Bft) 97,87 %
13.01.2017 00:22 3,4 C 3,3 C 2,2 C 97 % 15 lf 980,1 hPa 0,0 l/m 0 min 2 min 0 W/m 20,9 km/h (4 Bft) 95,74 %
13.01.2017 00:24 3,4 C 3,3 C 2,2 C 97 % 15 lf 980,1 hPa 0,0 l/m 0 min 2 min 0 W/m 25,1 km/h (4 Bft) 97,87 %
13.01.2017 00:26 3,4 C 3,3 C 2,2 C 97 % 15 lf 980,0 hPa 0,0 l/m 0 min 2 min 0 W/m 37,7 km/h (5 Bft) 95,65 %
13.01.2017 00:28 3,4 C 3,3 C 2,2 C 97 % 15 lf 980,1 hPa 0,0 l/m 0 min 2 min 0 W/m 35,6 km/h (5 Bft) 95,74 %
13.01.2017 00:30 3,4 C 3,3 C 2,2 C 97 % 15 lf 980,0 hPa 0,0 l/m 0 min 2 min 0 W/m 33,5 km/h (5 Bft) 97,87 %
13.01.2017 00:32 3,5 C 3,9 C 2,2 C 97 % 15 lf 980,0 hPa 0,0 l/m 0 min 2 min 0 W/m 29,3 km/h (5 Bft) 91,49 %
13.01.2017 00:34 3,5 C 3,9 C 2,2 C 97 % 15 lf 980,0 hPa 0,0 l/m 0 min 2 min 0 W/m 29,3 km/h (5 Bft) 97,87 %
13.01.2017 00:36 3,6 C 3,9 C 2,2 C 97 % 15 lf 980,0 hPa 0,0 l/m 0 min 2 min 0 W/m 33,5 km/h (5 Bft) 95,35 %
13.01.2017 00:38 3,6 C 3,9 C 2,2 C 97 % 15 lf 980,0 hPa 0,0 l/m 0 min 0 min 0 W/m 27,2 km/h (4 Bft) 95,74 %
13.01.2017 00:40 3,7 C 3,9 C 2,8 C 97 % 15 lf 979,9 hPa 0,0 l/m 0 min 2 min 0 W/m 31,4 km/h (5 Bft) 95,65 %
13.01.2017 00:42 3,7 C 3,9 C 2,8 C 97 % 15 lf 980,0 hPa 0,0 l/m 0 min 2 min 0 W/m 31,4 km/h (5 Bft) 97,87 %
13.01.2017 00:44 3,8 C 3,9 C 2,8 C 97 % 15 lf 979,9 hPa 0,0 l/m 0 min 2 min 0 W/m 39,7 km/h (6 Bft) 97,87 %
13.01.2017 00:46 3,9 C 3,9 C 2,8 C 97 % 15 lf 980,0 hPa 0,0 l/m 0 min 2 min 0 W/m 43,9 km/h (6 Bft) 97,87 %
13.01.2017 00:48 4,0 C 3,9 C 2,8 C 97 % 15 lf 980,0 hPa 0,0 l/m 0 min 2 min 0 W/m 31,4 km/h (5 Bft) 97,87 %
13.01.2017 00:50 4,1 C 3,9 C 2,8 C 97 % 15 lf 979,9 hPa 0,2 l/m 0 min 2 min 0 W/m 37,7 km/h (5 Bft) 97,14 %
13.01.2017 00:52 4,1 C 3,9 C 2,8 C 97 % 15 lf 979,9 hPa 0,0 l/m 0 min 2 min 0 W/m 25,1 km/h (4 Bft) 96,77 %
13.01.2017 00:54 4,1 C 3,9 C 2,8 C 97 % 15 lf 979,9 hPa 0,0 l/m 0 min 2 min 0 W/m 35,6 km/h (5 Bft) 97,87 %
13.01.2017 00:56 4,2 C 3,9 C 2,8 C 97 % 15 lf 979,9 hPa 0,0 l/m 0 min 2 min 0 W/m 25,1 km/h (4 Bft) 95,74 %
13.01.2017 00:58 4,2 C 3,9 C 2,8 C 97 % 15 lf 979,8 hPa 0,0 l/m 0 min 2 min 0 W/m 25,1 km/h (4 Bft) 97,87 %
13.01.2017 01:00 4,2 C 3,9 C 2,8 C 97 % 15 lf 979,8 hPa 0,0 l/m 0 min 2 min 0 W/m 18,8 km/h (3 Bft) 97,87 %
13.01.2017 01:02 4,2 C 3,9 C 2,8 C 97 % 15 lf 979,7 hPa 0,2 l/m 0 min 2 min 0 W/m 10,5 km/h (2 Bft) 91,30 %
13.01.2017 01:04 4,2 C 3,9 C 2,8 C 97 % 15 lf 979,7 hPa 0,0 l/m 0 min 2 min 0 W/m 12,6 km/h (3 Bft) 95,74 %
13.01.2017 01:06 4,2 C 3,9 C 2,8 C 97 % 15 lf 979,6 hPa 0,0 l/m 0 min 2 min 0 W/m 12,6 km/h (3 Bft) 90,48 %
13.01.2017 01:08 4,2 C 3,9 C 2,8 C 97 % 15 lf 979,5 hPa 0,0 l/m 0 min 2 min 0 W/m 8,4 km/h (2 Bft) 95,74 %
13.01.2017 01:10 4,2 C 3,9 C 2,8 C 97 % 15 lf 979,6 hPa 0,0 l/m 0 min 2 min 0 W/m 10,5 km/h (2 Bft) 97,87 %
13.01.2017 01:12 4,2 C 3,9 C 2,8 C 97 % 15 lf 979,6 hPa 0,0 l/m 0 min 2 min 0 W/m 8,4 km/h (2 Bft) 97,87 %
13.01.2017 01:14 4,2 C 3,9 C 2,8 C 97 % 15 lf 979,6 hPa 0,0 l/m 0 min 2 min 0 W/m 10,5 km/h (2 Bft) 100,00 %
13.01.2017 01:16 4,2 C 3,9 C 2,8 C 97 % 15 lf 979,6 hPa 0,0 l/m 0 min 2 min 0 W/m 10,5 km/h (2 Bft) 97,87 %
13.01.2017 01:18 4,2 C 3,9 C 2,8 C 97 % 15 lf 979,6 hPa 0,0 l/m 0 min 2 min 0 W/m 18,8 km/h (3 Bft) 97,87 %
13.01.2017 01:20 4,2 C 3,9 C 2,8 C 96 % 15 lf 979,6 hPa 0,0 l/m 0 min 2 min 0 W/m 25,1 km/h (4 Bft) 97,87 %
13.01.2017 01:22 4,2 C 3,9 C 2,8 C 96 % 15 lf 979,6 hPa 0,0 l/m 0 min 2 min 0 W/m 20,9 km/h (4 Bft) 97,87 %
13.01.2017 01:24 4,2 C 3,9 C 2,8 C 96 % 15 lf 979,5 hPa 0,0 l/m 0 min 2 min 0 W/m 18,8 km/h (3 Bft) 100,00 %
13.01.2017 01:26 4,2 C 3,9 C 2,8 C 96 % 15 lf 979,4 hPa 0,0 l/m 0 min 2 min 0 W/m 20,9 km/h (4 Bft) 97,83 %
13.01.2017 01:28 4,2 C 3,9 C 2,8 C 96 % 15 lf 979,6 hPa 0,0 l/m 0 min 2 min 0 W/m 33,5 km/h (5 Bft) 100,00 %
13.01.2017 01:30 4,2 C 3,9 C 2,8 C 96 % 15 lf 979,5 hPa 0,2 l/m 0 min 2 min 0 W/m 27,2 km/h (4 Bft) 95,74 %
13.01.2017 01:32 4,2 C 3,9 C 2,2 C 96 % 15 lf 979,5 hPa 0,0 l/m 0 min 2 min 0 W/m 16,7 km/h (3 Bft) 95,83 %
13.01.2017 01:34 4,2 C 3,9 C 2,2 C 96 % 15 lf 979,4 hPa 0,0 l/m 0 min 2 min 0 W/m 14,6 km/h (3 Bft) 95,74 %
13.01.2017 01:36 4,2 C 3,9 C 2,2 C 96 % 15 lf 979,3 hPa 0,0 l/m 0 min 0 min 0 W/m 18,8 km/h (3 Bft) 97,83 %
13.01.2017 01:38 4,1 C 3,9 C 2,2 C 96 % 15 lf 979,3 hPa 0,0 l/m 0 min 0 min 0 W/m 14,6 km/h (3 Bft) 93,48 %
13.01.2017 01:40 4,1 C 3,9 C 2,2 C 96 % 15 lf 979,3 hPa 0,0 l/m 0 min 2 min 0 W/m 16,7 km/h (3 Bft) 93,62 %
13.01.2017 01:42 4,1 C 3,9 C 2,2 C 96 % 15 lf 979,4 hPa 0,0 l/m 0 min 2 min 0 W/m 29,3 km/h (5 Bft) 93,62 %
13.01.2017 01:44 4,0 C 3,3 C 2,2 C 96 % 15 lf 979,3 hPa 0,0 l/m 0 min 2 min 0 W/m 27,2 km/h (4 Bft) 93,62 %
13.01.2017 01:46 4,0 C 3,3 C 2,2 C 96 % 15 lf 979,3 hPa 0,0 l/m 0 min 2 min 0 W/m 25,1 km/h (4 Bft) 97,87 %
13.01.2017 01:48 3,9 C 3,3 C 2,2 C 96 % 15 lf 979,3 hPa 0,0 l/m 0 min 2 min 0 W/m 29,3 km/h (5 Bft) 97,87 %
13.01.2017 01:50 3,9 C 3,3 C 2,2 C 96 % 15 lf 979,4 hPa 0,0 l/m 0 min 2 min 0 W/m 23,0 km/h (4 Bft) 97,83 %
13.01.2017 01:52 3,9 C 3,3 C 2,2 C 96 % 15 lf 979,5 hPa 0,0 l/m 0 min 2 min 0 W/m 33,5 km/h (5 Bft) 95,74 %
13.01.2017 01:54 3,8 C 3,3 C 2,2 C 96 % 15 lf 979,5 hPa 0,0 l/m 0 min 2 min 0 W/m 23,0 km/h (4 Bft) 97,87 %
13.01.2017 01:56 3,8 C 3,3 C 2,2 C 96 % 15 lf 979,5 hPa 0,0 l/m 0 min 0 min 0 W/m 25,1 km/h (4 Bft) 95,74 %
13.01.2017 01:58 3,8 C 3,3 C 2,2 C 96 % 15 lf 979,5 hPa 0,0 l/m 0 min 2 min 0 W/m 25,1 km/h (4 Bft) 97,87 %
13.01.2017 02:00 3,7 C 3,3 C 2,2 C 96 % 15 lf 979,5 hPa 0,0 l/m 0 min 0 min 0 W/m 23,0 km/h (4 Bft) 100,00 %
13.01.2017 02:02 3,7 C 3,3 C 2,2 C 96 % 15 lf 979,6 hPa 0,0 l/m 0 min 2 min 0 W/m 18,8 km/h (3 Bft) 97,87 %
13.01.2017 02:04 3,7 C 3,3 C 2,2 C 96 % 15 lf 979,6 hPa 0,0 l/m 0 min 2 min 0 W/m 27,2 km/h (4 Bft) 97,87 %
13.01.2017 02:06 3,7 C 3,3 C 2,2 C 96 % 15 lf 979,6 hPa 0,0 l/m 0 min 2 min 0 W/m 29,3 km/h (5 Bft) 97,87 %
13.01.2017 02:08 3,7 C 3,3 C 2,2 C 96 % 15 lf 979,6 hPa 0,0 l/m 0 min 2 min 0 W/m 31,4 km/h (5 Bft) 100,00 %
13.01.2017 02:10 3,7 C 3,3 C 2,2 C 96 % 15 lf 979,6 hPa 0,0 l/m 0 min 2 min 0 W/m 23,0 km/h (4 Bft) 100,00 %
13.01.2017 02:12 3,7 C 3,3 C 2,2 C 95 % 15 lf 979,8 hPa 0,0 l/m 0 min 2 min 0 W/m 25,1 km/h (4 Bft) 95,74 %
13.01.2017 02:14 3,6 C 3,3 C 2,2 C 95 % 15 lf 979,7 hPa 0,2 l/m 0 min 2 min 0 W/m 31,4 km/h (5 Bft) 95,65 %
13.01.2017 02:16 3,6 C 3,3 C 2,2 C 95 % 15 lf 979,7 hPa 0,0 l/m 0 min 2 min 0 W/m 27,2 km/h (4 Bft) 95,74 %
13.01.2017 02:18 3,6 C 3,3 C 2,2 C 96 % 15 lf 979,7 hPa 0,0 l/m 0 min 2 min 0 W/m 37,7 km/h (5 Bft) 97,87 %
13.01.2017 02:20 3,6 C 3,3 C 2,2 C 96 % 15 lf 979,8 hPa 0,0 l/m 0 min 2 min 0 W/m 25,1 km/h (4 Bft) 97,14 %
13.01.2017 02:22 3,6 C 3,3 C 1,7 C 96 % 15 lf 979,9 hPa 0,0 l/m 0 min 2 min 0 W/m 29,3 km/h (5 Bft) 98,41 %
13.01.2017 02:24 3,5 C 3,3 C 1,7 C 96 % 15 lf 979,9 hPa 0,0 l/m 0 min 2 min 0 W/m 33,5 km/h (5 Bft) 95,65 %
13.01.2017 02:26 3,5 C 3,3 C 1,7 C 96 % 15 lf 979,9 hPa 0,0 l/m 0 min 2 min 0 W/m 29,3 km/h (5 Bft) 95,74 %
13.01.2017 02:28 3,4 C 3,3 C 1,7 C 96 % 15 lf 979,9 hPa 0,0 l/m 0 min 2 min 0 W/m 27,2 km/h (4 Bft) 95,74 %
13.01.2017 02:30 3,4 C 3,3 C 1,7 C 96 % 15 lf 980,0 hPa 0,0 l/m 0 min 2 min 0 W/m 37,7 km/h (5 Bft) 95,74 %
13.01.2017 02:32 3,4 C 3,3 C 1,7 C 96 % 15 lf 980,1 hPa 0,2 l/m 0 min 2 min 0 W/m 35,6 km/h (5 Bft) 97,87 %
13.01.2017 02:34 3,4 C 2,8 C 1,7 C 95 % 15 lf 980,1 hPa 0,0 l/m 0 min 2 min 0 W/m 29,3 km/h (5 Bft) 95,65 %
13.01.2017 02:36 3,3 C 2,8 C 1,7 C 95 % 15 lf 980,2 hPa 0,0 l/m 0 min 2 min 0 W/m 25,1 km/h (4 Bft) 97,62 %
13.01.2017 02:38 3,3 C 2,8 C 1,7 C 95 % 15 lf 980,3 hPa 0,0 l/m 0 min 2 min 0 W/m 25,1 km/h (4 Bft) 93,62 %
13.01.2017 02:40 3,3 C 2,8 C 1,7 C 95 % 15 lf 980,4 hPa 0,0 l/m 0 min 2 min 0 W/m 23,0 km/h (4 Bft) 95,74 %
13.01.2017 02:42 3,3 C 2,8 C 1,7 C 95 % 15 lf 980,4 hPa 0,2 l/m 0 min 2 min 0 W/m 27,2 km/h (4 Bft) 95,74 %
13.01.2017 02:44 3,2 C 2,8 C 1,7 C 96 % 15 lf 980,5 hPa 0,0 l/m 0 min 2 min 0 W/m 33,5 km/h (5 Bft) 97,87 %
13.01.2017 02:46 3,2 C 2,8 C 1,7 C 96 % 15 lf 980,5 hPa 0,0 l/m 0 min 2 min 0 W/m 35,6 km/h (5 Bft) 91,49 %
13.01.2017 02:48 3,2 C 2,8 C 1,7 C 96 % 15 lf 980,7 hPa 0,0 l/m 0 min 2 min 0 W/m 27,2 km/h (4 Bft) 97,83 %
13.01.2017 02:50 3,1 C 2,8 C 1,7 C 96 % 15 lf 980,8 hPa 0,0 l/m 0 min 2 min 0 W/m 56,5 km/h (7 Bft) 93,62 %
13.01.2017 02:52 3,0 C 2,2 C 1,1 C 96 % 15 lf 981,1 hPa 0,0 l/m 0 min 2 min 0 W/m 50,2 km/h (7 Bft) 95,74 %
13.01.2017 02:54 2,8 C 1,7 C 0,6 C 95 % 15 lf 981,4 hPa 0,0 l/m 0 min 2 min 0 W/m 52,3 km/h (7 Bft) 97,87 %
13.01.2017 02:56 2,6 C 1,7 C 0,6 C 95 % 15 lf 981,5 hPa 0,0 l/m 0 min 2 min 0 W/m 43,9 km/h (6 Bft) 97,87 %
13.01.2017 02:58 2,4 C 1,7 C 0,6 C 95 % 15 lf 981,7 hPa 0,0 l/m 0 min 2 min 0 W/m 31,4 km/h (5 Bft) 97,87 %
13.01.2017 03:00 2,3 C 1,1 C 0,6 C 95 % 15 lf 981,8 hPa 0,0 l/m 0 min 2 min 0 W/m 33,5 km/h (5 Bft) 97,83 %
13.01.2017 03:02 2,1 C 1,1 C 0,0 C 95 % 15 lf 982,1 hPa 0,0 l/m 0 min 2 min 0 W/m 46,0 km/h (6 Bft) 97,92 %
13.01.2017 03:04 1,9 C 1,1 C 0,0 C 95 % 15 lf 982,2 hPa 0,0 l/m 0 min 2 min 0 W/m 33,5 km/h (5 Bft) 100,00 %
13.01.2017 03:06 1,8 C 1,1 C 0,0 C 95 % 15 lf 982,4 hPa 0,0 l/m 0 min 2 min 0 W/m 31,4 km/h (5 Bft) 98,15 %
13.01.2017 03:08 1,7 C 1,1 C 0,0 C 95 % 15 lf 982,4 hPa 0,0 l/m 0 min 2 min 0 W/m 39,7 km/h (6 Bft) 100,00 %
13.01.2017 03:10 1,6 C 1,1 C 0,0 C 95 % 15 lf 982,6 hPa 0,0 l/m 0 min 2 min 2 W/m 37,7 km/h (5 Bft) 97,83 %
13.01.2017 03:12 1,6 C 1,1 C 0,0 C 95 % 15 lf 982,8 hPa 0,0 l/m 0 min 2 min 0 W/m 31,4 km/h (5 Bft) 95,74 %
13.01.2017 03:14 1,4 C 1,1 C 0,0 C 95 % 15 lf 982,9 hPa 0,0 l/m 0 min 2 min 0 W/m 31,4 km/h (5 Bft) 97,87 %
13.01.2017 03:16 1,4 C 1,1 C 0,0 C 95 % 15 lf 983,1 hPa 0,0 l/m 0 min 2 min 0 W/m 29,3 km/h (5 Bft) 95,74 %
13.01.2017 03:18 1,4 C 1,1 C 0,0 C 95 % 15 lf 983,1 hPa 0,0 l/m 0 min 2 min 4 W/m 43,9 km/h (6 Bft) 95,74 %
13.01.2017 03:20 1,3 C 1,1 C 0,0 C 95 % 15 lf 983,3 hPa 0,0 l/m 0 min 2 min 5 W/m 37,7 km/h (5 Bft) 95,74 %
13.01.2017 03:22 1,3 C 1,1 C 0,0 C 95 % 15 lf 983,4 hPa 0,0 l/m 0 min 2 min 5 W/m 31,4 km/h (5 Bft) 95,65 %
13.01.2017 03:24 1,2 C 1,1 C 0,0 C 95 % 15 lf 983,4 hPa 0,0 l/m 0 min 2 min 1 W/m 35,6 km/h (5 Bft) 91,49 %
13.01.2017 03:26 1,2 C 1,1 C 0,0 C 95 % 15 lf 983,7 hPa 0,0 l/m 0 min 2 min 0 W/m 39,7 km/h (6 Bft) 93,62 %
13.01.2017 03:28 1,2 C 1,1 C 0,0 C 95 % 15 lf 983,7 hPa 0,0 l/m 0 min 2 min 1 W/m 41,8 km/h (6 Bft) 91,49 %
13.01.2017 03:30 1,1 C 1,1 C 0,0 C 95 % 15 lf 983,8 hPa 0,0 l/m 0 min 2 min 0 W/m 35,6 km/h (5 Bft) 91,49 %
13.01.2017 03:32 1,1 C 1,1 C 0,0 C 95 % 15 lf 983,9 hPa 0,0 l/m 0 min 2 min 0 W/m 35,6 km/h (5 Bft) 95,65 %
13.01.2017 03:34 1,1 C 1,1 C 0,0 C 95 % 15 lf 984,1 hPa 0,0 l/m 0 min 2 min 0 W/m 37,7 km/h (5 Bft) 89,36 %
13.01.2017 03:36 1,1 C 1,1 C 0,0 C 95 % 15 lf 984,2 hPa 0,0 l/m 0 min 2 min 0 W/m 41,8 km/h (6 Bft) 95,12 %
13.01.2017 03:38 1,1 C 1,1 C 0,0 C 95 % 15 lf 984,3 hPa 0,0 l/m 0 min 2 min 0 W/m 39,7 km/h (6 Bft) 93,62 %
13.01.2017 03:40 1,0 C 1,1 C 0,0 C 95 % 15 lf 984,4 hPa 0,0 l/m 0 min 2 min 0 W/m 33,5 km/h (5 Bft) 91,49 %
13.01.2017 03:42 1,0 C 1,1 C 0,0 C 95 % 15 lf 984,5 hPa 0,0 l/m 0 min 2 min 0 W/m 29,3 km/h (5 Bft) 93,62 %
13.01.2017 03:44 1,0 C 1,1 C 0,0 C 95 % 15 lf 984,5 hPa 0,0 l/m 0 min 2 min 0 W/m 37,7 km/h (5 Bft) 87,23 %
13.01.2017 03:46 1,0 C 1,1 C -0,6 C 95 % 15 lf 984,7 hPa 0,0 l/m 0 min 2 min 0 W/m 31,4 km/h (5 Bft) 92,68 %
13.01.2017 03:48 1,0 C 1,1 C 0,0 C 95 % 15 lf 984,7 hPa 0,2 l/m 0 min 2 min 0 W/m 39,7 km/h (6 Bft) 95,65 %
13.01.2017 03:50 0,9 C 1,1 C -0,6 C 95 % 15 lf 984,8 hPa 0,0 l/m 0 min 2 min 0 W/m 39,7 km/h (6 Bft) 96,23 %
13.01.2017 03:54 0,9 C 0,6 C -0,6 C 96 % 15 lf 984,9 hPa 0,0 l/m 0 min 2 min 0 W/m 33,5 km/h (5 Bft) 89,69 %
13.01.2017 03:56 0,9 C 1,1 C -0,6 C 96 % 15 lf 985,2 hPa 0,0 l/m 0 min 2 min 0 W/m 37,7 km/h (5 Bft) 95,65 %
13.01.2017 03:58 0,9 C 0,6 C -0,6 C 96 % 15 lf 985,2 hPa 0,0 l/m 0 min 2 min 0 W/m 35,6 km/h (5 Bft) 93,62 %
13.01.2017 04:00 0,9 C 0,6 C -0,6 C 96 % 15 lf 985,3 hPa 0,0 l/m 0 min 2 min 0 W/m 39,7 km/h (6 Bft) 93,62 %
13.01.2017 04:02 0,9 C 0,6 C -0,6 C 96 % 15 lf 985,4 hPa 0,0 l/m 0 min 2 min 0 W/m 33,5 km/h (5 Bft) 95,24 %
13.01.2017 04:04 0,9 C 0,6 C -0,6 C 96 % 15 lf 985,5 hPa 0,0 l/m 0 min 2 min 0 W/m 43,9 km/h (6 Bft) 95,74 %
13.01.2017 04:06 0,8 C 0,6 C -0,6 C 96 % 15 lf 985,6 hPa 0,0 l/m 0 min 2 min 0 W/m 52,3 km/h (7 Bft) 97,14 %
13.01.2017 04:08 0,8 C 0,6 C -0,6 C 96 % 15 lf 985,7 hPa 0,0 l/m 0 min 2 min 0 W/m 39,7 km/h (6 Bft) 95,74 %
13.01.2017 04:10 0,8 C 0,6 C -0,6 C 96 % 15 lf 985,8 hPa 0,0 l/m 0 min 2 min 0 W/m 46,0 km/h (6 Bft) 89,36 %
13.01.2017 04:12 0,8 C 0,6 C -0,6 C 96 % 15 lf 985,8 hPa 0,0 l/m 0 min 2 min 0 W/m 46,0 km/h (6 Bft) 94,23 %
13.01.2017 04:14 0,7 C 0,6 C -0,6 C 96 % 15 lf 986,0 hPa 0,0 l/m 0 min 2 min 0 W/m 37,7 km/h (5 Bft) 97,87 %
13.01.2017 04:16 0,7 C 0,6 C -0,6 C 96 % 15 lf 986,2 hPa 0,0 l/m 0 min 2 min 0 W/m 41,8 km/h (6 Bft) 95,12 %
13.01.2017 04:18 0,7 C 0,6 C -0,6 C 96 % 15 lf 986,1 hPa 0,0 l/m 0 min 2 min 0 W/m 46,0 km/h (6 Bft) 97,87 %
13.01.2017 04:20 0,7 C 0,6 C -0,6 C 96 % 15 lf 986,3 hPa 0,0 l/m 0 min 2 min 0 W/m 27,2 km/h (4 Bft) 96,23 %
13.01.2017 04:22 0,7 C 0,6 C -0,6 C 96 % 15 lf 986,3 hPa 0,0 l/m 0 min 2 min 0 W/m 58,6 km/h (7 Bft) 93,48 %
13.01.2017 04:24 0,7 C 0,6 C -1,1 C 96 % 15 lf 986,4 hPa 0,0 l/m 0 min 2 min 0 W/m 43,9 km/h (6 Bft) 95,74 %
13.01.2017 04:26 0,7 C 0,6 C -0,6 C 96 % 15 lf 986,6 hPa 0,0 l/m 0 min 2 min 0 W/m 33,5 km/h (5 Bft) 100,00 %
13.01.2017 04:28 0,6 C 0,6 C -1,1 C 96 % 15 lf 986,8 hPa 0,0 l/m 0 min 2 min 0 W/m 50,2 km/h (7 Bft) 93,62 %
13.01.2017 04:30 0,6 C 0,6 C -1,1 C 96 % 15 lf 986,8 hPa 0,0 l/m 0 min 2 min 0 W/m 50,2 km/h (7 Bft) 93,62 %
13.01.2017 04:32 0,6 C 0,6 C -1,1 C 96 % 15 lf 987,1 hPa 0,0 l/m 0 min 2 min 0 W/m 43,9 km/h (6 Bft) 97,87 %
13.01.2017 04:34 0,6 C 0,6 C -1,1 C 96 % 15 lf 987,0 hPa 0,0 l/m 0 min 2 min 0 W/m 31,4 km/h (5 Bft) 100,00 %
13.01.2017 04:36 0,6 C 0,6 C -1,1 C 96 % 15 lf 987,3 hPa 0,0 l/m 0 min 2 min 0 W/m 43,9 km/h (6 Bft) 96,00 %
13.01.2017 04:38 0,6 C 0,6 C -1,1 C 96 % 15 lf 987,3 hPa 0,0 l/m 0 min 2 min 0 W/m 39,7 km/h (6 Bft) 95,74 %
13.01.2017 04:40 0,6 C 0,6 C -1,1 C 96 % 15 lf 987,4 hPa 0,0 l/m 0 min 2 min 0 W/m 41,8 km/h (6 Bft) 100,00 %
13.01.2017 04:42 0,6 C 0,6 C -0,6 C 96 % 15 lf 987,6 hPa 0,0 l/m 0 min 2 min 0 W/m 48,1 km/h (6 Bft) 97,83 %
13.01.2017 04:44 0,7 C 0,6 C -0,6 C 96 % 15 lf 987,7 hPa 0,0 l/m 0 min 2 min 0 W/m 54,4 km/h (7 Bft) 100,00 %
13.01.2017 04:46 0,7 C 0,6 C -0,6 C 96 % 15 lf 987,7 hPa 0,0 l/m 0 min 2 min 0 W/m 46,0 km/h (6 Bft) 100,00 %
13.01.2017 04:48 0,7 C 1,1 C -0,6 C 96 % 15 lf 987,8 hPa 0,2 l/m 0 min 2 min 0 W/m 52,3 km/h (7 Bft) 95,74 %
13.01.2017 04:50 0,8 C 1,1 C -0,6 C 96 % 15 lf 987,8 hPa 0,0 l/m 0 min 2 min 0 W/m 71,1 km/h (8 Bft) 95,74 %
13.01.2017 04:52 0,8 C 1,1 C -0,6 C 96 % 15 lf 988,1 hPa 0,0 l/m 0 min 2 min 0 W/m 64,9 km/h (8 Bft) 93,62 %
13.01.2017 04:54 0,9 C 1,1 C -0,6 C 96 % 15 lf 988,2 hPa 0,0 l/m 0 min 2 min 0 W/m 43,9 km/h (6 Bft) 91,30 %
13.01.2017 04:56 0,9 C 1,1 C -0,6 C 96 % 15 lf 988,3 hPa 0,2 l/m 0 min 2 min 0 W/m 56,5 km/h (7 Bft) 97,87 %
13.01.2017 04:58 0,9 C 1,1 C -0,6 C 96 % 15 lf 988,3 hPa 0,0 l/m 0 min 2 min 0 W/m 54,4 km/h (7 Bft) 97,87 %
13.01.2017 05:00 0,9 C 1,1 C -0,6 C 96 % 15 lf 988,6 hPa 0,0 l/m 0 min 2 min 0 W/m 54,4 km/h (7 Bft) 95,74 %
13.01.2017 05:02 0,9 C 1,1 C -0,6 C 96 % 15 lf 988,7 hPa 0,0 l/m 0 min 2 min 0 W/m 33,5 km/h (5 Bft) 97,92 %
13.01.2017 05:04 0,9 C 1,1 C -0,6 C 96 % 15 lf 988,8 hPa 0,0 l/m 0 min 2 min 0 W/m 39,7 km/h (6 Bft) 93,62 %
13.01.2017 05:06 0,9 C 1,1 C -0,6 C 96 % 15 lf 989,0 hPa 0,0 l/m 0 min 2 min 0 W/m 41,8 km/h (6 Bft) 93,62 %
13.01.2017 05:08 0,9 C 1,1 C -0,6 C 96 % 15 lf 989,2 hPa 0,2 l/m 0 min 2 min 0 W/m 62,8 km/h (8 Bft) 93,62 %
13.01.2017 05:10 0,9 C 1,1 C -0,6 C 96 % 15 lf 989,2 hPa 0,0 l/m 0 min 2 min 0 W/m 50,2 km/h (7 Bft) 97,87 %
13.01.2017 05:12 0,9 C 1,1 C -0,6 C 96 % 15 lf 989,3 hPa 0,0 l/m 0 min 2 min 0 W/m 43,9 km/h (6 Bft) 95,74 %
13.01.2017 05:14 1,0 C 1,1 C -0,6 C 96 % 15 lf 989,5 hPa 0,0 l/m 0 min 2 min 0 W/m 50,2 km/h (7 Bft) 95,74 %
13.01.2017 05:16 1,0 C 1,1 C -0,6 C 97 % 15 lf 989,7 hPa 0,0 l/m 0 min 2 min 0 W/m 43,9 km/h (6 Bft) 95,65 %
13.01.2017 05:18 1,0 C 1,1 C -0,6 C 97 % 15 lf 989,8 hPa 0,0 l/m 0 min 2 min 0 W/m 46,0 km/h (6 Bft) 95,74 %
13.01.2017 05:20 1,1 C 1,1 C 0,0 C 97 % 15 lf 989,9 hPa 0,2 l/m 0 min 2 min 0 W/m 41,8 km/h (6 Bft) 95,74 %
13.01.2017 05:22 1,1 C 1,1 C 0,0 C 97 % 15 lf 989,9 hPa 0,0 l/m 0 min 2 min 0 W/m 48,1 km/h (6 Bft) 91,49 %
13.01.2017 05:24 1,1 C 1,1 C 0,0 C 97 % 15 lf 990,0 hPa 0,0 l/m 0 min 2 min 0 W/m 39,7 km/h (6 Bft) 95,74 %
13.01.2017 05:26 1,1 C 1,1 C -0,6 C 97 % 15 lf 990,2 hPa 0,0 l/m 0 min 2 min 0 W/m 43,9 km/h (6 Bft) 95,74 %
13.01.2017 05:28 1,1 C 1,1 C -0,6 C 97 % 15 lf 990,2 hPa 0,0 l/m 0 min 2 min 0 W/m 39,7 km/h (6 Bft) 95,65 %
13.01.2017 05:30 1,1 C 1,1 C 0,0 C 97 % 15 lf 990,5 hPa 0,2 l/m 0 min 2 min 0 W/m 39,7 km/h (6 Bft) 95,74 %
13.01.2017 05:32 1,1 C 1,1 C 0,0 C 97 % 15 lf 990,6 hPa 0,0 l/m 0 min 2 min 0 W/m 41,8 km/h (6 Bft) 97,87 %
13.01.2017 05:34 1,1 C 1,1 C 0,0 C 97 % 15 lf 990,7 hPa 0,0 l/m 0 min 2 min 0 W/m 56,5 km/h (7 Bft) 95,74 %
13.01.2017 05:36 1,1 C 1,1 C 0,0 C 97 % 15 lf 990,7 hPa 0,0 l/m 0 min 2 min 0 W/m 60,7 km/h (7 Bft) 100,00 %
13.01.2017 05:38 1,1 C 1,1 C 0,0 C 97 % 15 lf 990,8 hPa 0,0 l/m 0 min 2 min 0 W/m 39,7 km/h (6 Bft) 100,00 %
13.01.2017 05:40 1,2 C 1,1 C 0,0 C 97 % 15 lf 990,9 hPa 0,0 l/m 0 min 2 min 0 W/m 37,7 km/h (5 Bft) 97,83 %
13.01.2017 05:42 1,2 C 1,1 C 0,0 C 97 % 15 lf 990,8 hPa 0,0 l/m 0 min 2 min 0 W/m 52,3 km/h (7 Bft) 97,87 %
13.01.2017 05:44 1,2 C 1,1 C 0,0 C 97 % 15 lf 991,1 hPa 0,0 l/m 0 min 2 min 0 W/m 52,3 km/h (7 Bft) 100,00 %
13.01.2017 05:46 1,3 C 1,1 C 0,0 C 97 % 15 lf 991,3 hPa 0,0 l/m 0 min 2 min 0 W/m 37,7 km/h (5 Bft) 97,87 %
13.01.2017 05:48 1,3 C 1,1 C 0,0 C 97 % 15 lf 991,3 hPa 0,0 l/m 0 min 2 min 0 W/m 35,6 km/h (5 Bft) 100,00 %
13.01.2017 05:50 1,3 C 1,7 C 0,0 C 97 % 15 lf 991,4 hPa 0,0 l/m 0 min 2 min 0 W/m 29,3 km/h (5 Bft) 100,00 %
13.01.2017 05:52 1,3 C 1,7 C 0,0 C 97 % 15 lf 991,6 hPa 0,0 l/m 0 min 2 min 0 W/m 43,9 km/h (6 Bft) 95,65 %
13.01.2017 05:54 1,4 C 1,7 C 0,6 C 97 % 15 lf 991,6 hPa 0,0 l/m 0 min 2 min 0 W/m 37,7 km/h (5 Bft) 97,87 %
13.01.2017 05:56 1,4 C 1,7 C 0,6 C 97 % 15 lf 991,6 hPa 0,0 l/m 0 min 0 min 0 W/m 37,7 km/h (5 Bft) 100,00 %
13.01.2017 05:58 1,4 C 1,7 C 0,6 C 97 % 15 lf 991,8 hPa 0,0 l/m 0 min 2 min 0 W/m 37,7 km/h (5 Bft) 100,00 %
13.01.2017 06:00 1,5 C 1,7 C 0,6 C 97 % 15 lf 991,8 hPa 0,2 l/m 0 min 2 min 0 W/m 41,8 km/h (6 Bft) 97,87 %
13.01.2017 06:02 1,6 C 1,7 C 0,6 C 97 % 15 lf 992,1 hPa 0,0 l/m 0 min 2 min 0 W/m 43,9 km/h (6 Bft) 97,87 %
13.01.2017 06:04 1,6 C 1,7 C 0,6 C 97 % 15 lf 992,1 hPa 0,0 l/m 0 min 2 min 0 W/m 37,7 km/h (5 Bft) 97,14 %
13.01.2017 06:06 1,7 C 1,7 C 0,6 C 97 % 15 lf 992,3 hPa 0,0 l/m 0 min 2 min 0 W/m 39,7 km/h (6 Bft) 100,00 %
13.01.2017 06:08 1,7 C 1,7 C 0,6 C 97 % 15 lf 992,3 hPa 0,0 l/m 0 min 2 min 0 W/m 27,2 km/h (4 Bft) 100,00 %
13.01.2017 06:10 1,7 C 1,7 C 0,6 C 97 % 15 lf 992,5 hPa 0,0 l/m 0 min 2 min 0 W/m 35,6 km/h (5 Bft) 95,74 %
13.01.2017 06:12 1,7 C 1,7 C 0,6 C 97 % 15 lf 992,5 hPa 0,0 l/m 0 min 2 min 0 W/m 37,7 km/h (5 Bft) 100,00 %
13.01.2017 06:14 1,7 C 1,7 C 0,6 C 97 % 15 lf 992,6 hPa 0,0 l/m 0 min 2 min 0 W/m 46,0 km/h (6 Bft) 100,00 %
13.01.2017 06:16 1,7 C 1,7 C 0,6 C 97 % 15 lf 992,7 hPa 0,0 l/m 0 min 2 min 0 W/m 25,1 km/h (4 Bft) 93,62 %
13.01.2017 06:18 1,7 C 1,7 C 0,6 C 97 % 15 lf 992,7 hPa 0,0 l/m 0 min 0 min 0 W/m 33,5 km/h (5 Bft) 100,00 %
13.01.2017 06:20 1,8 C 1,7 C 0,6 C 97 % 15 lf 992,9 hPa 0,0 l/m 0 min 2 min 0 W/m 41,8 km/h (6 Bft) 100,00 %
13.01.2017 06:22 1,8 C 1,7 C 0,6 C 97 % 15 lf 993,0 hPa 0,0 l/m 0 min 0 min 0 W/m 33,5 km/h (5 Bft) 97,87 %
13.01.2017 06:24 1,8 C 2,2 C 0,6 C 97 % 15 lf 993,1 hPa 0,0 l/m 0 min 2 min 0 W/m 43,9 km/h (6 Bft) 97,87 %
13.01.2017 06:26 1,8 C 2,2 C 0,6 C 97 % 15 lf 993,2 hPa 0,0 l/m 0 min 2 min 0 W/m 37,7 km/h (5 Bft) 97,87 %
13.01.2017 06:28 1,9 C 2,2 C 0,6 C 97 % 15 lf 993,3 hPa 0,0 l/m 0 min 0 min 0 W/m 33,5 km/h (5 Bft) 97,87 %
13.01.2017 06:30 1,9 C 2,2 C 0,6 C 97 % 15 lf 993,3 hPa 0,0 l/m 0 min 0 min 0 W/m 23,0 km/h (4 Bft) 97,83 %
13.01.2017 06:32 1,9 C 2,2 C 0,6 C 97 % 15 lf 993,3 hPa 0,0 l/m 0 min 0 min 0 W/m 29,3 km/h (5 Bft) 95,74 %
13.01.2017 06:34 1,9 C 2,2 C 0,6 C 97 % 15 lf 993,4 hPa 0,0 l/m 0 min 0 min 0 W/m 35,6 km/h (5 Bft) 100,00 %
13.01.2017 06:36 2,0 C 2,2 C 0,6 C 97 % 15 lf 993,4 hPa 0,0 l/m 0 min 0 min 0 W/m 29,3 km/h (5 Bft) 96,61 %
13.01.2017 06:38 2,0 C 2,2 C 0,6 C 97 % 15 lf 993,5 hPa 0,0 l/m 0 min 2 min 0 W/m 31,4 km/h (5 Bft) 97,87 %
13.01.2017 06:40 2,0 C 2,2 C 0,6 C 97 % 15 lf 993,6 hPa 0,0 l/m 0 min 0 min 0 W/m 20,9 km/h (4 Bft) 97,83 %
13.01.2017 06:42 2,0 C 1,7 C 0,6 C 97 % 15 lf 993,7 hPa 0,0 l/m 0 min 0 min 0 W/m 20,9 km/h (4 Bft) 97,87 %
13.01.2017 06:44 1,9 C 1,7 C 0,6 C 97 % 15 lf 993,8 hPa 0,0 l/m 0 min 0 min 0 W/m 27,2 km/h (4 Bft) 93,62 %
13.01.2017 06:46 1,9 C 1,7 C 0,6 C 97 % 15 lf 993,9 hPa 0,0 l/m 0 min 0 min 0 W/m 25,1 km/h (4 Bft) 95,74 %
13.01.2017 06:48 1,9 C 1,7 C 0,6 C 97 % 15 lf 994,0 hPa 0,0 l/m 0 min 0 min 0 W/m 29,3 km/h (5 Bft) 97,87 %
13.01.2017 06:50 1,9 C 1,7 C 0,6 C 97 % 15 lf 994,0 hPa 0,0 l/m 0 min 0 min 0 W/m 20,9 km/h (4 Bft) 95,65 %
13.01.2017 06:52 1,9 C 1,7 C 0,6 C 97 % 15 lf 994,2 hPa 0,0 l/m 0 min 0 min 0 W/m 23,0 km/h (4 Bft) 93,62 %
13.01.2017 06:54 1,9 C 1,7 C 0,6 C 97 % 15 lf 994,2 hPa 0,0 l/m 0 min 0 min 0 W/m 25,1 km/h (4 Bft) 93,62 %
13.01.2017 06:56 1,9 C 1,7 C 0,6 C 97 % 15 lf 994,2 hPa 0,0 l/m 0 min 0 min 0 W/m 23,0 km/h (4 Bft) 95,74 %
13.01.2017 06:58 1,8 C 1,7 C 0,6 C 97 % 15 lf 994,3 hPa 0,0 l/m 0 min 0 min 0 W/m 31,4 km/h (5 Bft) 95,74 %
13.01.2017 07:00 1,8 C 1,7 C 0,6 C 97 % 15 lf 994,4 hPa 0,0 l/m 0 min 0 min 0 W/m 23,0 km/h (4 Bft) 93,62 %
13.01.2017 07:02 1,8 C 1,7 C 0,6 C 97 % 15 lf 994,4 hPa 0,0 l/m 0 min 0 min 0 W/m 29,3 km/h (5 Bft) 93,48 %
13.01.2017 07:04 1,8 C 1,7 C 0,6 C 97 % 15 lf 994,5 hPa 0,0 l/m 0 min 2 min 0 W/m 27,2 km/h (4 Bft) 95,74 %
13.01.2017 07:06 1,8 C 1,7 C 0,6 C 97 % 15 lf 994,6 hPa 0,0 l/m 0 min 0 min 0 W/m 29,3 km/h (5 Bft) 94,29 %
13.01.2017 07:08 1,8 C 1,7 C 0,6 C 97 % 15 lf 994,6 hPa 0,0 l/m 0 min 0 min 0 W/m 23,0 km/h (4 Bft) 95,74 %
13.01.2017 07:10 1,8 C 1,7 C 0,6 C 97 % 15 lf 994,8 hPa 0,0 l/m 0 min 2 min 0 W/m 35,6 km/h (5 Bft) 91,49 %
13.01.2017 07:12 1,9 C 1,7 C 0,6 C 97 % 15 lf 994,9 hPa 0,0 l/m 0 min 2 min 0 W/m 29,3 km/h (5 Bft) 95,74 %
13.01.2017 07:14 1,9 C 1,7 C 0,6 C 97 % 15 lf 994,9 hPa 0,0 l/m 0 min 2 min 0 W/m 27,2 km/h (4 Bft) 95,74 %
13.01.2017 07:16 1,9 C 1,7 C 0,6 C 97 % 15 lf 994,9 hPa 0,0 l/m 0 min 0 min 0 W/m 31,4 km/h (5 Bft) 95,65 %
13.01.2017 07:18 1,9 C 1,7 C 0,6 C 97 % 15 lf 995,0 hPa 0,0 l/m 0 min 2 min 0 W/m 25,1 km/h (4 Bft) 97,87 %
13.01.2017 07:20 1,9 C 1,7 C 0,6 C 97 % 15 lf 995,1 hPa 0,0 l/m 0 min 0 min 0 W/m 27,2 km/h (4 Bft) 95,74 %
13.01.2017 07:22 1,9 C 1,7 C 0,6 C 97 % 15 lf 995,2 hPa 0,0 l/m 0 min 0 min 0 W/m 25,1 km/h (4 Bft) 95,74 %
13.01.2017 07:24 1,9 C 1,7 C 0,6 C 97 % 15 lf 995,2 hPa 0,0 l/m 0 min 0 min 0 W/m 23,0 km/h (4 Bft) 95,74 %
13.01.2017 07:26 1,9 C 1,7 C 0,6 C 97 % 15 lf 995,3 hPa 0,0 l/m 0 min 0 min 0 W/m 23,0 km/h (4 Bft) 97,87 %
13.01.2017 07:28 1,9 C 1,7 C 0,6 C 97 % 15 lf 995,4 hPa 0,0 l/m 0 min 2 min 0 W/m 27,2 km/h (4 Bft) 97,83 %
13.01.2017 07:30 1,9 C 1,7 C 0,6 C 97 % 15 lf 995,5 hPa 0,0 l/m 0 min 0 min 0 W/m 35,6 km/h (5 Bft) 91,49 %
13.01.2017 07:32 1,9 C 1,7 C 0,6 C 97 % 15 lf 995,5 hPa 0,0 l/m 0 min 0 min 0 W/m 18,8 km/h (3 Bft) 93,62 %
13.01.2017 07:34 1,9 C 1,7 C 0,6 C 97 % 15 lf 995,6 hPa 0,0 l/m 0 min 0 min 0 W/m 23,0 km/h (4 Bft) 91,49 %
13.01.2017 07:36 1,9 C 1,7 C 0,6 C 97 % 15 lf 995,6 hPa 0,0 l/m 0 min 0 min 0 W/m 31,4 km/h (5 Bft) 91,07 %
13.01.2017 07:38 1,9 C 1,7 C 0,6 C 97 % 15 lf 995,7 hPa 0,0 l/m 0 min 2 min 0 W/m 23,0 km/h (4 Bft) 93,48 %
13.01.2017 07:40 1,9 C 1,7 C 0,6 C 97 % 15 lf 995,7 hPa 0,0 l/m 0 min 2 min 0 W/m 33,5 km/h (5 Bft) 93,62 %
13.01.2017 07:42 1,9 C 1,7 C 0,6 C 97 % 15 lf 995,7 hPa 0,0 l/m 0 min 0 min 0 W/m 37,7 km/h (5 Bft) 93,62 %
13.01.2017 07:44 1,9 C 1,7 C 0,6 C 97 % 15 lf 995,8 hPa 0,0 l/m 0 min 0 min 0 W/m 23,0 km/h (4 Bft) 93,62 %
13.01.2017 07:46 1,9 C 1,7 C 0,6 C 97 % 15 lf 995,8 hPa 0,0 l/m 0 min 0 min 0 W/m 27,2 km/h (4 Bft) 93,62 %
13.01.2017 07:48 1,9 C 1,7 C 0,6 C 97 % 15 lf 995,8 hPa 0,0 l/m 0 min 0 min 0 W/m 35,6 km/h (5 Bft) 93,62 %
13.01.2017 07:50 1,9 C 1,7 C 0,0 C 97 % 15 lf 995,9 hPa 0,0 l/m 0 min 0 min 0 W/m 33,5 km/h (5 Bft) 93,48 %
13.01.2017 07:52 1,9 C 1,7 C 0,6 C 97 % 15 lf 996,0 hPa 0,0 l/m 0 min 0 min 0 W/m 31,4 km/h (5 Bft) 95,74 %
13.01.2017 07:54 1,9 C 1,7 C 0,6 C 96 % 15 lf 996,1 hPa 0,0 l/m 0 min 0 min 0 W/m 39,7 km/h (6 Bft) 95,74 %
13.01.2017 07:56 1,9 C 1,7 C 0,6 C 96 % 15 lf 996,1 hPa 0,0 l/m 0 min 2 min 0 W/m 39,7 km/h (6 Bft) 93,62 %
13.01.2017 07:58 1,9 C 1,7 C 0,0 C 96 % 15 lf 996,2 hPa 0,0 l/m 0 min 0 min 0 W/m 29,3 km/h (5 Bft) 93,62 %
13.01.2017 08:00 1,9 C 1,7 C 0,0 C 96 % 15 lf 996,1 hPa 0,0 l/m 0 min 0 min 0 W/m 31,4 km/h (5 Bft) 91,49 %
13.01.2017 08:02 1,8 C 1,7 C 0,0 C 96 % 15 lf 996,4 hPa 0,0 l/m 0 min 0 min 0 W/m 27,2 km/h (4 Bft) 95,74 %
13.01.2017 08:04 1,8 C 1,7 C 0,0 C 96 % 15 lf 996,3 hPa 0,0 l/m 0 min 0 min 0 W/m 23,0 km/h (4 Bft) 95,74 %
13.01.2017 08:06 1,8 C 1,7 C 0,0 C 96 % 15 lf 996,3 hPa 0,0 l/m 0 min 0 min 0 W/m 29,3 km/h (5 Bft) 97,96 %
13.01.2017 08:08 1,8 C 1,7 C 0,0 C 96 % 15 lf 996,5 hPa 0,0 l/m 0 min 0 min 0 W/m 29,3 km/h (5 Bft) 95,74 %
13.01.2017 08:10 1,8 C 1,7 C 0,0 C 96 % 15 lf 996,6 hPa 0,0 l/m 0 min 0 min 0 W/m 23,0 km/h (4 Bft) 95,74 %
13.01.2017 08:12 1,8 C 1,7 C 0,0 C 96 % 15 lf 996,6 hPa 0,0 l/m 0 min 0 min 0 W/m 29,3 km/h (5 Bft) 97,83 %
13.01.2017 08:14 1,7 C 1,7 C 0,0 C 96 % 15 lf 996,7 hPa 0,0 l/m 0 min 2 min 0 W/m 39,7 km/h (6 Bft) 95,74 %
13.01.2017 08:16 1,7 C 1,7 C 0,0 C 96 % 15 lf 996,7 hPa 0,0 l/m 0 min 0 min 0 W/m 29,3 km/h (5 Bft) 93,62 %
13.01.2017 08:18 1,7 C 1,1 C -0,6 C 96 % 15 lf 996,8 hPa 0,0 l/m 0 min 0 min 0 W/m 29,3 km/h (5 Bft) 95,74 %
13.01.2017 08:20 1,7 C 1,1 C -0,6 C 96 % 15 lf 996,9 hPa 0,0 l/m 0 min 0 min 0 W/m 31,4 km/h (5 Bft) 95,74 %
13.01.2017 08:22 1,7 C 1,1 C -0,6 C 96 % 15 lf 997,0 hPa 0,0 l/m 0 min 0 min 0 W/m 33,5 km/h (5 Bft) 97,87 %
13.01.2017 08:24 1,7 C 1,1 C -0,6 C 96 % 15 lf 997,1 hPa 0,0 l/m 0 min 0 min 0 W/m 37,7 km/h (5 Bft) 93,48 %
13.01.2017 08:26 1,6 C 1,1 C -0,6 C 96 % 15 lf 997,2 hPa 0,0 l/m 0 min 0 min 0 W/m 25,1 km/h (4 Bft) 95,74 %
13.01.2017 08:28 1,6 C 1,1 C -0,6 C 96 % 15 lf 997,2 hPa 0,0 l/m 0 min 2 min 0 W/m 33,5 km/h (5 Bft) 97,87 %
13.01.2017 08:30 1,6 C 1,1 C -0,6 C 95 % 15 lf 997,3 hPa 0,0 l/m 0 min 0 min 5 W/m 27,2 km/h (4 Bft) 95,74 %
13.01.2017 08:32 1,6 C 1,1 C -0,6 C 95 % 15 lf 997,4 hPa 0,0 l/m 0 min 0 min 5 W/m 31,4 km/h (5 Bft) 97,87 %
13.01.2017 08:34 1,6 C 1,1 C 0,0 C 95 % 15 lf 997,4 hPa 0,0 l/m 0 min 2 min 5 W/m 33,5 km/h (5 Bft) 97,87 %
13.01.2017 08:36 1,6 C 1,1 C 0,0 C 95 % 15 lf 997,5 hPa 0,0 l/m 0 min 2 min 5 W/m 33,5 km/h (5 Bft) 95,65 %
13.01.2017 08:38 1,6 C 1,1 C 0,0 C 95 % 15 lf 997,7 hPa 0,0 l/m 0 min 0 min 5 W/m 29,3 km/h (5 Bft) 93,62 %
13.01.2017 08:40 1,6 C 1,7 C 0,0 C 95 % 15 lf 997,8 hPa 0,0 l/m 0 min 0 min 5 W/m 29,3 km/h (5 Bft) 95,74 %
13.01.2017 08:42 1,6 C 1,7 C 0,0 C 95 % 15 lf 997,8 hPa 0,0 l/m 0 min 0 min 5 W/m 33,5 km/h (5 Bft) 95,74 %
13.01.2017 08:44 1,6 C 1,7 C 0,0 C 95 % 15 lf 997,9 hPa 0,0 l/m 0 min 2 min 6 W/m 33,5 km/h (5 Bft) 93,62 %
13.01.2017 08:46 1,6 C 1,7 C 0,0 C 95 % 15 lf 998,0 hPa 0,0 l/m 0 min 2 min 7 W/m 46,0 km/h (6 Bft) 93,48 %
13.01.2017 08:48 1,6 C 1,7 C 0,0 C 95 % 15 lf 997,9 hPa 0,0 l/m 0 min 0 min 7 W/m 27,2 km/h (4 Bft) 97,87 %
13.01.2017 08:50 1,6 C 1,1 C 0,0 C 95 % 15 lf 998,0 hPa 0,0 l/m 0 min 2 min 5 W/m 25,1 km/h (4 Bft) 95,74 %
13.01.2017 08:52 1,6 C 1,1 C 0,0 C 95 % 15 lf 998,0 hPa 0,0 l/m 0 min 2 min 5 W/m 35,6 km/h (5 Bft) 97,87 %
13.01.2017 08:54 1,6 C 1,1 C 0,0 C 95 % 15 lf 998,0 hPa 0,0 l/m 0 min 2 min 5 W/m 31,4 km/h (5 Bft) 97,87 %
13.01.2017 08:56 1,5 C 1,1 C 0,0 C 95 % 15 lf 998,0 hPa 0,0 l/m 0 min 2 min 7 W/m 39,7 km/h (6 Bft) 97,87 %
13.01.2017 08:58 1,5 C 1,1 C 0,0 C 95 % 15 lf 998,1 hPa 0,0 l/m 0 min 2 min 6 W/m 37,7 km/h (5 Bft) 95,65 %
13.01.2017 09:00 1,5 C 1,1 C 0,0 C 95 % 15 lf 998,2 hPa 0,0 l/m 0 min 2 min 6 W/m 20,9 km/h (4 Bft) 91,49 %
13.01.2017 09:02 1,4 C 1,1 C 0,0 C 95 % 15 lf 998,2 hPa 0,2 l/m 0 min 2 min 7 W/m 27,2 km/h (4 Bft) 94,29 %
13.01.2017 09:04 1,4 C 1,1 C 0,0 C 95 % 15 lf 998,2 hPa 0,0 l/m 0 min 2 min 8 W/m 29,3 km/h (5 Bft) 97,87 %
13.01.2017 09:06 1,4 C 1,1 C 0,0 C 95 % 15 lf 998,3 hPa 0,0 l/m 0 min 2 min 11 W/m 29,3 km/h (5 Bft) 98,15 %
13.01.2017 09:08 1,4 C 1,1 C 0,0 C 95 % 15 lf 998,4 hPa 0,0 l/m 0 min 0 min 11 W/m 14,6 km/h (3 Bft) 95,74 %
13.01.2017 09:10 1,4 C 1,1 C 0,0 C 95 % 15 lf 998,5 hPa 0,0 l/m 0 min 0 min 11 W/m 20,9 km/h (4 Bft) 95,74 %
13.01.2017 09:12 1,4 C 1,1 C 0,0 C 95 % 15 lf 998,5 hPa 0,0 l/m 0 min 0 min 12 W/m 25,1 km/h (4 Bft) 100,00 %
13.01.2017 09:14 1,4 C 1,1 C 0,0 C 95 % 15 lf 998,5 hPa 0,0 l/m 0 min 0 min 14 W/m 23,0 km/h (4 Bft) 97,87 %
13.01.2017 09:16 1,4 C 1,1 C 0,0 C 95 % 15 lf 998,6 hPa 0,0 l/m 0 min 0 min 16 W/m 16,7 km/h (3 Bft) 93,62 %
13.01.2017 09:18 1,3 C 1,1 C 0,0 C 95 % 15 lf 998,6 hPa 0,0 l/m 0 min 0 min 16 W/m 20,9 km/h (4 Bft) 100,00 %
13.01.2017 09:20 1,3 C 1,1 C 0,0 C 95 % 15 lf 998,6 hPa 0,0 l/m 0 min 0 min 18 W/m 14,6 km/h (3 Bft) 97,87 %
13.01.2017 09:22 1,3 C 1,1 C 0,0 C 95 % 15 lf 998,6 hPa 0,0 l/m 0 min 0 min 19 W/m 25,1 km/h (4 Bft) 100,00 %
13.01.2017 09:24 1,3 C 1,1 C -0,6 C 95 % 15 lf 998,6 hPa 0,0 l/m 0 min 0 min 19 W/m 18,8 km/h (3 Bft) 100,00 %
13.01.2017 09:26 1,2 C 1,1 C -0,6 C 95 % 15 lf 998,6 hPa 0,0 l/m 0 min 0 min 21 W/m 23,0 km/h (4 Bft) 95,74 %
13.01.2017 09:28 1,2 C 1,1 C 0,0 C 95 % 15 lf 998,7 hPa 0,0 l/m 0 min 0 min 19 W/m 33,5 km/h (5 Bft) 97,87 %
13.01.2017 09:30 1,2 C 1,1 C 0,0 C 95 % 15 lf 998,8 hPa 0,0 l/m 0 min 0 min 18 W/m 27,2 km/h (4 Bft) 95,74 %
13.01.2017 09:32 1,2 C 1,1 C 0,0 C 95 % 15 lf 998,9 hPa 0,0 l/m 0 min 0 min 16 W/m 33,5 km/h (5 Bft) 93,75 %
13.01.2017 09:34 1,2 C 1,1 C 0,0 C 95 % 15 lf 998,9 hPa 0,0 l/m 0 min 2 min 18 W/m 35,6 km/h (5 Bft) 95,65 %
13.01.2017 09:36 1,2 C 1,1 C 0,0 C 95 % 15 lf 999,0 hPa 0,0 l/m 0 min 2 min 20 W/m 31,4 km/h (5 Bft) 94,00 %
13.01.2017 09:38 1,2 C 1,1 C 0,0 C 95 % 15 lf 999,0 hPa 0,0 l/m 0 min 2 min 22 W/m 25,1 km/h (4 Bft) 97,87 %
13.01.2017 09:40 1,2 C 1,1 C 0,0 C 95 % 15 lf 999,1 hPa 0,0 l/m 0 min 2 min 18 W/m 27,2 km/h (4 Bft) 95,74 %
13.01.2017 09:42 1,2 C 1,1 C 0,0 C 95 % 15 lf 999,1 hPa 0,0 l/m 0 min 0 min 18 W/m 23,0 km/h (4 Bft) 95,74 %
13.01.2017 09:44 1,2 C 1,1 C 0,0 C 95 % 15 lf 999,1 hPa 0,0 l/m 0 min 2 min 21 W/m 35,6 km/h (5 Bft) 93,62 %
13.01.2017 09:46 1,2 C 1,1 C 0,0 C 96 % 15 lf 999,1 hPa 0,0 l/m 0 min 2 min 23 W/m 27,2 km/h (4 Bft) 95,65 %
13.01.2017 09:48 1,2 C 1,1 C 0,0 C 96 % 15 lf 999,2 hPa 0,0 l/m 0 min 2 min 25 W/m 27,2 km/h (4 Bft) 97,87 %
13.01.2017 09:50 1,2 C 1,1 C -0,6 C 96 % 15 lf 999,1 hPa 0,0 l/m 0 min 0 min 30 W/m 29,3 km/h (5 Bft) 93,62 %
13.01.2017 09:52 1,2 C 1,1 C 0,0 C 96 % 15 lf 999,2 hPa 0,0 l/m 0 min 2 min 33 W/m 20,9 km/h (4 Bft) 93,62 %
13.01.2017 09:54 1,2 C 1,1 C 0,0 C 96 % 15 lf 999,2 hPa 0,0 l/m 0 min 0 min 36 W/m 33,5 km/h (5 Bft) 97,87 %
13.01.2017 09:56 1,1 C 1,1 C 0,0 C 96 % 15 lf 999,3 hPa 0,0 l/m 0 min 0 min 35 W/m 27,2 km/h (4 Bft) 95,74 %
13.01.2017 09:58 1,1 C 1,1 C 0,0 C 96 % 15 lf 999,3 hPa 0,0 l/m 0 min 0 min 41 W/m 25,1 km/h (4 Bft) 93,48 %
13.01.2017 10:00 1,1 C 1,1 C 0,0 C 96 % 15 lf 999,4 hPa 0,0 l/m 0 min 0 min 47 W/m 23,0 km/h (4 Bft) 91,49 %
13.01.2017 10:02 1,1 C 1,1 C 0,0 C 96 % 15 lf 999,4 hPa 0,0 l/m 0 min 2 min 53 W/m 29,3 km/h (5 Bft) 93,75 %
13.01.2017 10:04 1,1 C 1,7 C 0,0 C 96 % 15 lf 999,4 hPa 0,0 l/m 0 min 2 min 64 W/m 23,0 km/h (4 Bft) 95,74 %
13.01.2017 10:06 1,1 C 1,7 C 0,0 C 96 % 15 lf 999,5 hPa 0,0 l/m 0 min 0 min 80 W/m 27,2 km/h (4 Bft) 94,74 %
13.01.2017 10:08 1,1 C 1,7 C 0,0 C 96 % 15 lf 999,6 hPa 0,0 l/m 0 min 0 min 58 W/m 18,8 km/h (3 Bft) 93,62 %
13.01.2017 10:10 1,2 C 1,7 C 0,0 C 96 % 15 lf 999,6 hPa 0,0 l/m 0 min 0 min 54 W/m 25,1 km/h (4 Bft) 95,74 %
13.01.2017 10:12 1,2 C 1,7 C 0,0 C 96 % 15 lf 999,6 hPa 0,0 l/m 0 min 0 min 55 W/m 33,5 km/h (5 Bft) 95,65 %
13.01.2017 10:14 1,2 C 1,7 C 0,6 C 96 % 15 lf 999,7 hPa 0,0 l/m 0 min 0 min 53 W/m 27,2 km/h (4 Bft) 95,74 %
13.01.2017 10:16 1,2 C 1,7 C 0,0 C 96 % 15 lf 999,6 hPa 0,0 l/m 0 min 2 min 45 W/m 27,2 km/h (4 Bft) 95,74 %
13.01.2017 10:18 1,2 C 1,7 C 0,0 C 96 % 15 lf 999,7 hPa 0,0 l/m 0 min 0 min 44 W/m 20,9 km/h (4 Bft) 93,62 %
13.01.2017 10:20 1,3 C 1,7 C 0,0 C 96 % 15 lf 999,7 hPa 0,0 l/m 0 min 2 min 46 W/m 25,1 km/h (4 Bft) 95,74 %
13.01.2017 10:22 1,3 C 1,7 C 0,0 C 96 % 15 lf 999,7 hPa 0,0 l/m 0 min 0 min 45 W/m 29,3 km/h (5 Bft) 97,83 %
13.01.2017 10:24 1,3 C 1,7 C 0,6 C 96 % 15 lf 999,8 hPa 0,0 l/m 0 min 0 min 67 W/m 35,6 km/h (5 Bft) 93,62 %
13.01.2017 10:26 1,3 C 1,7 C 0,6 C 96 % 15 lf 999,7 hPa 0,0 l/m 0 min 2 min 66 W/m 31,4 km/h (5 Bft) 95,74 %
13.01.2017 10:28 1,4 C 1,7 C 0,6 C 96 % 15 lf 999,8 hPa 0,0 l/m 0 min 0 min 54 W/m 27,2 km/h (4 Bft) 95,74 %
13.01.2017 10:30 1,4 C 1,7 C 0,6 C 96 % 15 lf 999,8 hPa 0,0 l/m 0 min 0 min 48 W/m 23,0 km/h (4 Bft) 95,74 %
13.01.2017 10:32 1,4 C 1,7 C 0,6 C 96 % 15 lf 999,8 hPa 0,0 l/m 0 min 0 min 36 W/m 25,1 km/h (4 Bft) 95,74 %
13.01.2017 10:34 1,4 C 1,7 C 0,6 C 96 % 15 lf 999,9 hPa 0,0 l/m 0 min 0 min 29 W/m 25,1 km/h (4 Bft) 95,65 %
13.01.2017 10:36 1,5 C 1,7 C 0,6 C 96 % 15 lf 999,9 hPa 0,0 l/m 0 min 2 min 29 W/m 23,0 km/h (4 Bft) 96,30 %
13.01.2017 10:38 1,5 C 1,7 C 0,6 C 96 % 15 lf 999,8 hPa 0,0 l/m 0 min 0 min 27 W/m 25,1 km/h (4 Bft) 93,62 %
13.01.2017 10:40 1,5 C 1,7 C 0,6 C 96 % 15 lf 999,9 hPa 0,0 l/m 0 min 2 min 60 W/m 37,7 km/h (5 Bft) 93,62 %
13.01.2017 10:42 1,5 C 1,7 C 0,6 C 96 % 15 lf 999,9 hPa 0,0 l/m 0 min 0 min 74 W/m 23,0 km/h (4 Bft) 95,74 %
13.01.2017 10:44 1,5 C 2,2 C 0,6 C 96 % 15 lf 999,9 hPa 0,0 l/m 0 min 0 min 80 W/m 29,3 km/h (5 Bft) 97,83 %
13.01.2017 10:46 1,5 C 2,2 C 1,1 C 96 % 15 lf 999,9 hPa 0,0 l/m 0 min 2 min 100 W/m 23,0 km/h (4 Bft) 95,74 %
13.01.2017 10:48 1,6 C 2,2 C 0,6 C 96 % 15 lf 999,9 hPa 0,0 l/m 0 min 0 min 63 W/m 23,0 km/h (4 Bft) 97,87 %
13.01.2017 10:50 1,6 C 2,2 C 0,6 C 96 % 15 lf 999,9 hPa 0,0 l/m 0 min 0 min 67 W/m 33,5 km/h (5 Bft) 97,87 %
13.01.2017 10:52 1,6 C 2,2 C 0,6 C 96 % 15 lf 999,9 hPa 0,0 l/m 0 min 0 min 77 W/m 23,0 km/h (4 Bft) 95,74 %
13.01.2017 10:54 1,6 C 2,2 C 0,6 C 96 % 15 lf 1000,0 hPa 0,0 l/m 0 min 2 min 78 W/m 27,2 km/h (4 Bft) 95,74 %
13.01.2017 10:56 1,6 C 2,2 C 1,1 C 96 % 15 lf 999,9 hPa 0,0 l/m 0 min 0 min 77 W/m 20,9 km/h (4 Bft) 97,83 %
13.01.2017 10:58 1,6 C 2,2 C 1,1 C 96 % 15 lf 1000,0 hPa 0,0 l/m 0 min 2 min 77 W/m 29,3 km/h (5 Bft) 95,74 %
13.01.2017 11:00 1,7 C 2,2 C 1,1 C 96 % 15 lf 1000,1 hPa 0,0 l/m 0 min 0 min 87 W/m 18,8 km/h (3 Bft) 97,87 %
13.01.2017 11:02 1,7 C 2,2 C 1,1 C 96 % 15 lf 1000,2 hPa 0,0 l/m 0 min 0 min 83 W/m 25,1 km/h (4 Bft) 100,00 %
13.01.2017 11:04 1,7 C 2,2 C 1,1 C 96 % 15 lf 1000,2 hPa 0,0 l/m 0 min 2 min 83 W/m 33,5 km/h (5 Bft) 100,00 %
13.01.2017 11:06 1,7 C 2,2 C 1,1 C 96 % 15 lf 1000,2 hPa 0,0 l/m 0 min 0 min 76 W/m 23,0 km/h (4 Bft) 97,96 %
13.01.2017 11:08 1,7 C 2,2 C 1,1 C 96 % 15 lf 1000,2 hPa 0,0 l/m 0 min 0 min 90 W/m 23,0 km/h (4 Bft) 97,87 %
13.01.2017 11:10 1,7 C 2,2 C 1,1 C 96 % 15 lf 1000,2 hPa 0,0 l/m 0 min 0 min 121 W/m 29,3 km/h (5 Bft) 100,00 %
13.01.2017 11:12 1,7 C 2,2 C 1,1 C 96 % 15 lf 1000,4 hPa 0,0 l/m 0 min 0 min 128 W/m 33,5 km/h (5 Bft) 100,00 %
13.01.2017 11:14 1,8 C 2,2 C 1,1 C 96 % 15 lf 1000,4 hPa 0,0 l/m 0 min 0 min 94 W/m 20,9 km/h (4 Bft) 97,87 %
13.01.2017 11:16 1,8 C 2,2 C 1,1 C 96 % 15 lf 1000,3 hPa 0,0 l/m 0 min 0 min 64 W/m 16,7 km/h (3 Bft) 97,87 %
13.01.2017 11:18 1,8 C 2,2 C 1,1 C 96 % 15 lf 1000,3 hPa 0,0 l/m 0 min 2 min 56 W/m 20,9 km/h (4 Bft) 100,00 %
13.01.2017 11:20 1,8 C 2,2 C 1,1 C 96 % 15 lf 1000,4 hPa 0,0 l/m 0 min 2 min 64 W/m 14,6 km/h (3 Bft) 97,87 %
13.01.2017 11:22 1,8 C 2,2 C 1,1 C 96 % 15 lf 1000,3 hPa 0,0 l/m 0 min 0 min 71 W/m 27,2 km/h (4 Bft) 97,87 %
13.01.2017 11:24 1,8 C 2,2 C 1,1 C 96 % 15 lf 1000,3 hPa 0,0 l/m 0 min 2 min 83 W/m 20,9 km/h (4 Bft) 100,00 %
13.01.2017 11:26 1,8 C 2,2 C 1,1 C 96 % 15 lf 1000,4 hPa 0,0 l/m 0 min 2 min 87 W/m 25,1 km/h (4 Bft) 100,00 %
13.01.2017 11:28 1,8 C 2,2 C 1,1 C 96 % 15 lf 1000,4 hPa 0,0 l/m 0 min 2 min 79 W/m 37,7 km/h (5 Bft) 100,00 %
13.01.2017 11:30 1,8 C 2,2 C 0,6 C 96 % 15 lf 1000,4 hPa 0,0 l/m 0 min 2 min 78 W/m 31,4 km/h (5 Bft) 100,00 %
13.01.2017 11:32 1,8 C 2,2 C 0,6 C 96 % 15 lf 1000,4 hPa 0,0 l/m 0 min 2 min 78 W/m 23,0 km/h (4 Bft) 94,44 %
13.01.2017 11:34 1,8 C 1,7 C 0,6 C 96 % 15 lf 1000,5 hPa 0,0 l/m 0 min 2 min 60 W/m 27,2 km/h (4 Bft) 100,00 %
13.01.2017 11:36 1,7 C 1,7 C 0,6 C 96 % 15 lf 1000,5 hPa 0,0 l/m 0 min 2 min 58 W/m 18,8 km/h (3 Bft) 97,87 %
13.01.2017 11:38 1,7 C 1,1 C -0,6 C 96 % 15 lf 1000,6 hPa 0,0 l/m 0 min 2 min 45 W/m 31,4 km/h (5 Bft) 100,00 %
13.01.2017 11:40 1,6 C 1,1 C -1,1 C 96 % 15 lf 1000,6 hPa 0,0 l/m 0 min 2 min 36 W/m 27,2 km/h (4 Bft) 100,00 %
13.01.2017 11:42 1,4 C 0,6 C -1,1 C 96 % 15 lf 1000,6 hPa 0,2 l/m 0 min 2 min 33 W/m 33,5 km/h (5 Bft) 97,87 %
13.01.2017 11:44 1,3 C 0,6 C -1,1 C 96 % 15 lf 1000,7 hPa 0,0 l/m 0 min 2 min 29 W/m 25,1 km/h (4 Bft) 97,83 %
13.01.2017 11:46 1,2 C 0,6 C -1,1 C 96 % 15 lf 1000,7 hPa 0,0 l/m 0 min 2 min 31 W/m 18,8 km/h (3 Bft) 100,00 %
13.01.2017 11:48 1,1 C 0,6 C -1,1 C 96 % 15 lf 1000,7 hPa 0,0 l/m 0 min 2 min 32 W/m 18,8 km/h (3 Bft) 100,00 %
13.01.2017 11:50 1,1 C 0,6 C -1,1 C 96 % 15 lf 1000,7 hPa 0,0 l/m 0 min 2 min 32 W/m 16,7 km/h (3 Bft) 95,74 %
13.01.2017 11:52 0,9 C 0,6 C -1,1 C 95 % 15 lf 1000,8 hPa 0,0 l/m 0 min 2 min 35 W/m 20,9 km/h (4 Bft) 93,62 %
13.01.2017 11:54 0,9 C 0,6 C -1,1 C 95 % 15 lf 1000,8 hPa 0,0 l/m 0 min 2 min 40 W/m 18,8 km/h (3 Bft) 97,87 %
13.01.2017 11:56 0,8 C 0,6 C -1,1 C 95 % 15 lf 1000,9 hPa 0,0 l/m 0 min 2 min 42 W/m 27,2 km/h (4 Bft) 95,65 %
13.01.2017 11:58 0,8 C 0,6 C -1,1 C 95 % 15 lf 1000,8 hPa 0,0 l/m 0 min 2 min 48 W/m 18,8 km/h (3 Bft) 97,87 %
13.01.2017 12:00 0,8 C 0,6 C -1,1 C 95 % 15 lf 1000,9 hPa 0,0 l/m 0 min 2 min 52 W/m 18,8 km/h (3 Bft) 95,74 %
13.01.2017 12:02 0,8 C 0,6 C -1,1 C 95 % 15 lf 1000,9 hPa 0,0 l/m 0 min 2 min 58 W/m 20,9 km/h (4 Bft) 96,23 %
13.01.2017 12:04 0,7 C 1,1 C -1,1 C 96 % 15 lf 1000,9 hPa 0,0 l/m 0 min 2 min 59 W/m 23,0 km/h (4 Bft) 95,74 %
13.01.2017 12:06 0,7 C 1,1 C -0,6 C 96 % 15 lf 1000,9 hPa 0,2 l/m 0 min 2 min 71 W/m 20,9 km/h (4 Bft) 95,74 %
13.01.2017 12:08 0,7 C 1,1 C -0,6 C 96 % 15 lf 1000,9 hPa 0,0 l/m 0 min 2 min 84 W/m 16,7 km/h (3 Bft) 95,74 %
13.01.2017 12:10 0,7 C 1,1 C -0,6 C 96 % 15 lf 1000,9 hPa 0,0 l/m 0 min 2 min 87 W/m 16,7 km/h (3 Bft) 95,74 %
13.01.2017 12:12 0,7 C 1,1 C -0,6 C 96 % 15 lf 1000,9 hPa 0,0 l/m 0 min 2 min 89 W/m 16,7 km/h (3 Bft) 94,59 %
13.01.2017 12:14 0,7 C 1,1 C -0,6 C 96 % 15 lf 1000,9 hPa 0,0 l/m 0 min 2 min 87 W/m 16,7 km/h (3 Bft) 96,00 %
13.01.2017 12:16 0,7 C 1,1 C -0,6 C 96 % 15 lf 1000,9 hPa 0,2 l/m 0 min 2 min 85 W/m 18,8 km/h (3 Bft) 97,87 %
13.01.2017 12:18 0,7 C 1,1 C -0,6 C 96 % 15 lf 1000,8 hPa 0,0 l/m 0 min 2 min 84 W/m 18,8 km/h (3 Bft) 95,65 %
13.01.2017 12:20 0,7 C 1,1 C -0,6 C 96 % 15 lf 1000,8 hPa 0,0 l/m 0 min 2 min 94 W/m 16,7 km/h (3 Bft) 93,62 %
13.01.2017 12:22 0,7 C 1,1 C 0,0 C 96 % 15 lf 1000,8 hPa 0,0 l/m 0 min 2 min 119 W/m 16,7 km/h (3 Bft) 95,74 %
13.01.2017 12:24 0,7 C 1,7 C 0,0 C 96 % 15 lf 1000,7 hPa 0,0 l/m 0 min 2 min 136 W/m 18,8 km/h (3 Bft) 95,74 %
13.01.2017 12:26 0,8 C 1,7 C 0,6 C 96 % 15 lf 1000,7 hPa 0,2 l/m 2 min 2 min 158 W/m 14,6 km/h (3 Bft) 93,62 %
13.01.2017 12:28 0,8 C 1,7 C 0,6 C 96 % 15 lf 1000,7 hPa 0,0 l/m 2 min 0 min 158 W/m 25,1 km/h (4 Bft) 91,49 %
13.01.2017 12:30 0,8 C 1,7 C 0,6 C 96 % 15 lf 1000,8 hPa 0,0 l/m 2 min 0 min 152 W/m 10,5 km/h (2 Bft) 89,13 %
13.01.2017 12:32 0,9 C 2,2 C 0,6 C 96 % 15 lf 1000,7 hPa 0,0 l/m 2 min 0 min 155 W/m 12,6 km/h (3 Bft) 89,36 %
13.01.2017 12:34 0,9 C 2,2 C 1,1 C 96 % 15 lf 1000,7 hPa 0,0 l/m 0 min 0 min 144 W/m 14,6 km/h (3 Bft) 91,49 %
13.01.2017 12:36 0,9 C 2,2 C 1,1 C 96 % 15 lf 1000,6 hPa 0,0 l/m 0 min 0 min 133 W/m 14,6 km/h (3 Bft) 92,59 %
13.01.2017 12:38 1,0 C 2,2 C 1,1 C 96 % 15 lf 1000,6 hPa 0,0 l/m 0 min 0 min 130 W/m 10,5 km/h (2 Bft) 89,36 %
13.01.2017 12:40 1,0 C 2,2 C 1,1 C 96 % 15 lf 1000,7 hPa 0,0 l/m 0 min 0 min 129 W/m 10,5 km/h (2 Bft) 89,13 %
13.01.2017 12:42 1,1 C 2,2 C 1,1 C 96 % 15 lf 1000,7 hPa 0,0 l/m 0 min 0 min 125 W/m 20,9 km/h (4 Bft) 89,36 %
13.01.2017 12:44 1,1 C 2,2 C 1,1 C 96 % 15 lf 1000,7 hPa 0,0 l/m 0 min 0 min 129 W/m 18,8 km/h (3 Bft) 91,49 %
13.01.2017 12:46 1,2 C 2,2 C 0,6 C 96 % 15 lf 1000,6 hPa 0,0 l/m 0 min 0 min 135 W/m 18,8 km/h (3 Bft) 91,49 %
13.01.2017 12:48 1,2 C 2,2 C 1,1 C 96 % 15 lf 1000,7 hPa 0,0 l/m 0 min 0 min 138 W/m 20,9 km/h (4 Bft) 91,49 %
13.01.2017 12:50 1,2 C 2,2 C 1,1 C 96 % 15 lf 1000,8 hPa 0,0 l/m 0 min 0 min 136 W/m 16,7 km/h (3 Bft) 93,62 %
13.01.2017 12:52 1,3 C 2,2 C 1,1 C 96 % 15 lf 1000,8 hPa 0,0 l/m 0 min 0 min 145 W/m 23,0 km/h (4 Bft) 93,48 %
13.01.2017 12:54 1,3 C 2,8 C 0,6 C 96 % 15 lf 1000,9 hPa 0,0 l/m 0 min 0 min 146 W/m 23,0 km/h (4 Bft) 87,23 %
13.01.2017 12:56 1,3 C 2,8 C 0,6 C 96 % 15 lf 1000,9 hPa 0,0 l/m 0 min 0 min 144 W/m 20,9 km/h (4 Bft) 91,49 %
13.01.2017 12:58 1,3 C 2,8 C 0,6 C 96 % 15 lf 1000,8 hPa 0,0 l/m 2 min 0 min 177 W/m 23,0 km/h (4 Bft) 93,62 %
13.01.2017 13:00 1,3 C 3,9 C 0,6 C 96 % 15 lf 1000,9 hPa 0,0 l/m 2 min 0 min 204 W/m 18,8 km/h (3 Bft) 93,62 %
13.01.2017 13:02 1,4 C 3,9 C 0,6 C 97 % 15 lf 1001,0 hPa 0,0 l/m 2 min 0 min 244 W/m 25,1 km/h (4 Bft) 93,62 %
13.01.2017 13:04 1,4 C 4,4 C 1,1 C 97 % 15 lf 1001,0 hPa 0,0 l/m 2 min 0 min 316 W/m 18,8 km/h (3 Bft) 97,87 %
13.01.2017 13:06 1,5 C 5,6 C 1,7 C 97 % 15 lf 1001,1 hPa 0,0 l/m 2 min 0 min 332 W/m 18,8 km/h (3 Bft) 91,49 %
13.01.2017 13:08 1,6 C 5,0 C 1,7 C 97 % 15 lf 1001,1 hPa 0,0 l/m 2 min 0 min 260 W/m 23,0 km/h (4 Bft) 93,62 %
13.01.2017 13:10 1,7 C 3,9 C 1,7 C 97 % 15 lf 1001,1 hPa 0,0 l/m 2 min 0 min 176 W/m 27,2 km/h (4 Bft) 93,62 %
13.01.2017 13:12 1,7 C 3,3 C 1,7 C 97 % 15 lf 1001,1 hPa 0,0 l/m 0 min 0 min 141 W/m 23,0 km/h (4 Bft) 87,23 %
13.01.2017 13:14 1,8 C 3,3 C 1,1 C 97 % 15 lf 1001,1 hPa 0,0 l/m 0 min 0 min 142 W/m 18,8 km/h (3 Bft) 91,30 %
13.01.2017 13:16 1,8 C 3,3 C 1,1 C 97 % 15 lf 1001,1 hPa 0,0 l/m 0 min 0 min 144 W/m 16,7 km/h (3 Bft) 97,87 %
13.01.2017 13:18 1,8 C 2,8 C 1,1 C 97 % 15 lf 1001,2 hPa 0,0 l/m 2 min 0 min 152 W/m 18,8 km/h (3 Bft) 95,74 %
13.01.2017 13:20 1,8 C 3,3 C 1,1 C 97 % 15 lf 1001,2 hPa 0,0 l/m 0 min 0 min 144 W/m 18,8 km/h (3 Bft) 97,87 %
13.01.2017 13:22 1,9 C 3,3 C 1,7 C 97 % 15 lf 1001,2 hPa 0,0 l/m 2 min 0 min 150 W/m 25,1 km/h (4 Bft) 97,87 %
13.01.2017 13:24 1,9 C 3,3 C 1,7 C 97 % 15 lf 1001,2 hPa 0,0 l/m 2 min 0 min 153 W/m 18,8 km/h (3 Bft) 100,00 %
13.01.2017 13:26 1,9 C 3,9 C 1,7 C 97 % 15 lf 1001,2 hPa 0,0 l/m 2 min 0 min 190 W/m 27,2 km/h (4 Bft) 97,83 %
13.01.2017 13:28 2,0 C 3,9 C 1,7 C 97 % 15 lf 1001,1 hPa 0,0 l/m 2 min 0 min 271 W/m 20,9 km/h (4 Bft) 97,87 %
13.01.2017 13:30 2,1 C 5,0 C 1,7 C 97 % 15 lf 1001,2 hPa 0,0 l/m 2 min 0 min 251 W/m 18,8 km/h (3 Bft) 97,87 %
13.01.2017 13:32 2,1 C 5,0 C 1,7 C 97 % 15 lf 1001,1 hPa 0,0 l/m 2 min 0 min 280 W/m 16,7 km/h (3 Bft) 94,44 %
13.01.2017 13:34 2,2 C 4,4 C 1,7 C 97 % 15 lf 1001,2 hPa 0,0 l/m 2 min 0 min 156 W/m 20,9 km/h (4 Bft) 100,00 %
13.01.2017 13:36 2,2 C 4,4 C 1,7 C 97 % 15 lf 1001,1 hPa 0,0 l/m 2 min 0 min 167 W/m 18,8 km/h (3 Bft) 97,73 %
13.01.2017 13:38 2,2 C 4,4 C 1,7 C 97 % 15 lf 1001,1 hPa 0,0 l/m 2 min 0 min 151 W/m 20,9 km/h (4 Bft) 98,18 %
13.01.2017 13:40 2,3 C 3,9 C 1,7 C 97 % 15 lf 1001,1 hPa 0,0 l/m 0 min 0 min 129 W/m 14,6 km/h (3 Bft) 100,00 %
13.01.2017 13:42 2,3 C 3,9 C 1,7 C 97 % 15 lf 1001,1 hPa 0,0 l/m 0 min 0 min 108 W/m 14,6 km/h (3 Bft) 100,00 %
13.01.2017 13:44 2,3 C 3,3 C 1,7 C 97 % 15 lf 1001,1 hPa 0,0 l/m 0 min 0 min 99 W/m 23,0 km/h (4 Bft) 100,00 %
13.01.2017 13:46 2,3 C 3,3 C 1,7 C 97 % 15 lf 1001,1 hPa 0,0 l/m 0 min 0 min 83 W/m 20,9 km/h (4 Bft) 97,87 %
13.01.2017 13:48 2,3 C 3,3 C 1,7 C 97 % 15 lf 1001,2 hPa 0,0 l/m 0 min 0 min 109 W/m 25,1 km/h (4 Bft) 100,00 %
13.01.2017 13:50 2,3 C 3,3 C 1,7 C 97 % 15 lf 1001,2 hPa 0,0 l/m 0 min 0 min 116 W/m 23,0 km/h (4 Bft) 100,00 %
13.01.2017 13:52 2,3 C 3,3 C 1,7 C 97 % 15 lf 1001,2 hPa 0,0 l/m 0 min 0 min 123 W/m 23,0 km/h (4 Bft) 97,87 %
13.01.2017 13:54 2,3 C 5,0 C 1,7 C 97 % 15 lf 1001,2 hPa 0,0 l/m 2 min 0 min 141 W/m 23,0 km/h (4 Bft) 100,00 %
13.01.2017 13:56 2,4 C 5,0 C 1,7 C 97 % 15 lf 1001,1 hPa 0,0 l/m 2 min 0 min 190 W/m 20,9 km/h (4 Bft) 97,87 %
13.01.2017 13:58 2,4 C 5,0 C 1,7 C 97 % 15 lf 1001,1 hPa 0,0 l/m 2 min 0 min 269 W/m 20,9 km/h (4 Bft) 100,00 %
13.01.2017 14:00 2,4 C 6,1 C 1,1 C 97 % 15 lf 1001,2 hPa 0,0 l/m 2 min 0 min 216 W/m 18,8 km/h (3 Bft) 95,74 %
13.01.2017 14:02 2,5 C 6,7 C 1,7 C 97 % 15 lf 1001,2 hPa 0,0 l/m 2 min 0 min 236 W/m 20,9 km/h (4 Bft) 95,74 %
13.01.2017 14:04 2,5 C 6,1 C 1,1 C 97 % 14 lf 1001,2 hPa 0,0 l/m 2 min 0 min 227 W/m 23,0 km/h (4 Bft) 93,62 %
13.01.2017 14:06 2,6 C 6,1 C 1,1 C 97 % 14 lf 1001,2 hPa 0,0 l/m 2 min 0 min 214 W/m 33,5 km/h (5 Bft) 93,62 %
13.01.2017 14:08 2,6 C 6,1 C 1,1 C 97 % 13 lf 1001,2 hPa 0,0 l/m 2 min 0 min 209 W/m 25,1 km/h (4 Bft) 97,87 %
13.01.2017 14:10 2,6 C 6,7 C 1,1 C 96 % 13 lf 1001,2 hPa 0,0 l/m 2 min 0 min 206 W/m 18,8 km/h (3 Bft) 100,00 %
13.01.2017 14:12 2,6 C 6,7 C 1,1 C 96 % 12 lf 1001,2 hPa 0,0 l/m 2 min 0 min 198 W/m 18,8 km/h (3 Bft) 97,92 %
13.01.2017 14:14 2,6 C 6,7 C 1,1 C 96 % 11 lf 1001,2 hPa 0,0 l/m 2 min 0 min 198 W/m 25,1 km/h (4 Bft) 97,83 %
13.01.2017 14:16 2,7 C 7,8 C 1,1 C 96 % 10 lf 1001,2 hPa 0,0 l/m 2 min 0 min 195 W/m 16,7 km/h (3 Bft) 95,74 %
13.01.2017 14:18 2,7 C 7,8 C 1,1 C 96 % 9 lf 1001,2 hPa 0,0 l/m 2 min 0 min 189 W/m 25,1 km/h (4 Bft) 97,87 %
13.01.2017 14:20 2,7 C 8,3 C 1,1 C 96 % 7 lf 1001,2 hPa 0,0 l/m 2 min 0 min 191 W/m 20,9 km/h (4 Bft) 97,87 %
13.01.2017 14:22 2,8 C 8,3 C 1,1 C 96 % 6 lf 1001,3 hPa 0,0 l/m 2 min 0 min 194 W/m 23,0 km/h (4 Bft) 97,87 %
13.01.2017 14:24 2,8 C 8,3 C 1,7 C 96 % 4 lf 1001,3 hPa 0,0 l/m 2 min 0 min 188 W/m 25,1 km/h (4 Bft) 100,00 %
13.01.2017 14:26 2,9 C 7,8 C 1,1 C 96 % 4 lf 1001,3 hPa 0,0 l/m 2 min 0 min 192 W/m 18,8 km/h (3 Bft) 97,87 %
13.01.2017 14:28 2,9 C 7,8 C 1,1 C 96 % 3 lf 1001,3 hPa 0,0 l/m 2 min 0 min 199 W/m 25,1 km/h (4 Bft) 95,74 %
13.01.2017 14:30 2,9 C 6,1 C 1,1 C 95 % 3 lf 1001,3 hPa 0,0 l/m 2 min 0 min 162 W/m 23,0 km/h (4 Bft) 95,74 %
13.01.2017 14:32 2,9 C 6,1 C 1,1 C 95 % 2 lf 1001,3 hPa 0,0 l/m 0 min 0 min 107 W/m 23,0 km/h (4 Bft) 94,44 %
13.01.2017 14:34 2,9 C 6,7 C 1,1 C 95 % 1 lf 1001,3 hPa 0,0 l/m 2 min 0 min 193 W/m 23,0 km/h (4 Bft) 98,00 %
13.01.2017 14:36 2,9 C 7,2 C 1,1 C 95 % 1 lf 1001,3 hPa 0,0 l/m 2 min 0 min 181 W/m 25,1 km/h (4 Bft) 98,21 %
13.01.2017 14:38 2,9 C 7,2 C 1,1 C 95 % 0 lf 1001,3 hPa 0,0 l/m 2 min 0 min 172 W/m 31,4 km/h (5 Bft) 97,06 %
13.01.2017 14:40 2,9 C 6,7 C 1,1 C 94 % 0 lf 1001,4 hPa 0,0 l/m 2 min 0 min 146 W/m 25,1 km/h (4 Bft) 96,00 %
13.01.2017 14:42 3,0 C 6,7 C 1,1 C 94 % 0 lf 1001,4 hPa 0,0 l/m 2 min 0 min 187 W/m 20,9 km/h (4 Bft) 97,87 %
13.01.2017 14:44 3,0 C 7,2 C 1,1 C 94 % 0 lf 1001,4 hPa 0,0 l/m 2 min 0 min 179 W/m 20,9 km/h (4 Bft) 97,87 %
13.01.2017 14:46 3,1 C 7,8 C 1,1 C 94 % 0 lf 1001,4 hPa 0,0 l/m 2 min 0 min 154 W/m 20,9 km/h (4 Bft) 94,34 %
13.01.2017 14:48 3,1 C 6,7 C 1,1 C 93 % 0 lf 1001,3 hPa 0,0 l/m 2 min 0 min 147 W/m 33,5 km/h (5 Bft) 95,65 %
13.01.2017 14:50 3,1 C 6,1 C 1,1 C 93 % 0 lf 1001,3 hPa 0,0 l/m 2 min 0 min 130 W/m 25,1 km/h (4 Bft) 100,00 %
13.01.2017 14:52 3,1 C 4,4 C 1,1 C 93 % 0 lf 1001,4 hPa 0,0 l/m 2 min 0 min 106 W/m 29,3 km/h (5 Bft) 97,56 %
13.01.2017 14:54 3,1 C 3,9 C 1,1 C 92 % 0 lf 1001,4 hPa 0,0 l/m 2 min 0 min 132 W/m 23,0 km/h (4 Bft) 97,87 %
13.01.2017 14:56 3,1 C 3,3 C 1,1 C 92 % 0 lf 1001,4 hPa 0,0 l/m 2 min 0 min 129 W/m 27,2 km/h (4 Bft) 95,74 %
13.01.2017 14:58 3,1 C 3,3 C 1,1 C 92 % 0 lf 1001,4 hPa 0,0 l/m 2 min 0 min 126 W/m 31,4 km/h (5 Bft) 95,74 %
13.01.2017 15:00 3,1 C 3,3 C 1,1 C 91 % 0 lf 1001,3 hPa 0,0 l/m 2 min 0 min 120 W/m 29,3 km/h (5 Bft) 87,23 %
13.01.2017 15:02 3,1 C 3,3 C 0,6 C 91 % 0 lf 1001,3 hPa 0,0 l/m 2 min 0 min 120 W/m 29,3 km/h (5 Bft) 94,34 %
13.01.2017 15:04 3,1 C 3,3 C 0,6 C 90 % 0 lf 1001,4 hPa 0,0 l/m 2 min 0 min 117 W/m 27,2 km/h (4 Bft) 93,62 %
13.01.2017 15:06 3,1 C 3,3 C 0,6 C 90 % 0 lf 1001,4 hPa 0,0 l/m 2 min 0 min 114 W/m 25,1 km/h (4 Bft) 89,47 %
13.01.2017 15:08 3,1 C 3,3 C 0,6 C 89 % 0 lf 1001,4 hPa 0,0 l/m 2 min 0 min 110 W/m 27,2 km/h (4 Bft) 91,49 %
13.01.2017 15:10 3,1 C 3,3 C 0,6 C 89 % 0 lf 1001,4 hPa 0,0 l/m 2 min 0 min 107 W/m 29,3 km/h (5 Bft) 91,49 %
13.01.2017 15:12 3,1 C 2,8 C 0,6 C 88 % 0 lf 1001,3 hPa 0,0 l/m 2 min 0 min 103 W/m 29,3 km/h (5 Bft) 91,49 %
13.01.2017 15:14 3,1 C 2,8 C 0,6 C 88 % 0 lf 1001,4 hPa 0,0 l/m 2 min 0 min 99 W/m 25,1 km/h (4 Bft) 93,48 %
13.01.2017 15:16 3,1 C 3,3 C 0,6 C 88 % 0 lf 1001,4 hPa 0,0 l/m 2 min 0 min 95 W/m 25,1 km/h (4 Bft) 93,62 %
13.01.2017 15:18 3,1 C 3,3 C 1,1 C 87 % 0 lf 1001,4 hPa 0,0 l/m 2 min 0 min 92 W/m 14,6 km/h (3 Bft) 91,49 %
13.01.2017 15:20 3,1 C 3,3 C 1,1 C 87 % 0 lf 1001,4 hPa 0,0 l/m 2 min 0 min 91 W/m 23,0 km/h (4 Bft) 95,74 %
13.01.2017 15:22 3,1 C 3,3 C 1,1 C 87 % 0 lf 1001,5 hPa 0,0 l/m 0 min 0 min 77 W/m 25,1 km/h (4 Bft) 93,62 %
13.01.2017 15:24 3,1 C 3,3 C 1,1 C 87 % 0 lf 1001,4 hPa 0,0 l/m 0 min 0 min 58 W/m 27,2 km/h (4 Bft) 95,74 %
13.01.2017 15:26 3,1 C 2,8 C 1,1 C 86 % 0 lf 1001,5 hPa 0,0 l/m 0 min 0 min 65 W/m 25,1 km/h (4 Bft) 93,48 %
13.01.2017 15:28 3,1 C 2,8 C 1,1 C 86 % 0 lf 1001,4 hPa 0,0 l/m 0 min 0 min 52 W/m 29,3 km/h (5 Bft) 95,74 %
13.01.2017 15:30 3,0 C 2,8 C 1,1 C 86 % 0 lf 1001,4 hPa 0,0 l/m 0 min 0 min 40 W/m 25,1 km/h (4 Bft) 93,62 %
13.01.2017 15:32 3,0 C 2,8 C 1,1 C 86 % 0 lf 1001,4 hPa 0,0 l/m 0 min 0 min 40 W/m 29,3 km/h (5 Bft) 95,83 %
13.01.2017 15:34 2,9 C 2,2 C 1,1 C 86 % 0 lf 1001,4 hPa 0,0 l/m 0 min 0 min 40 W/m 23,0 km/h (4 Bft) 95,74 %
13.01.2017 15:36 2,9 C 2,8 C 1,1 C 86 % 0 lf 1001,4 hPa 0,0 l/m 0 min 0 min 64 W/m 18,8 km/h (3 Bft) 92,73 %
13.01.2017 15:38 2,9 C 2,8 C 1,1 C 86 % 0 lf 1001,4 hPa 0,0 l/m 2 min 0 min 74 W/m 20,9 km/h (4 Bft) 93,62 %
13.01.2017 15:40 2,9 C 2,8 C 1,1 C 86 % 0 lf 1001,3 hPa 0,0 l/m 0 min 0 min 55 W/m 23,0 km/h (4 Bft) 93,62 %
13.01.2017 15:42 2,8 C 2,8 C 1,1 C 86 % 0 lf 1001,3 hPa 0,0 l/m 0 min 0 min 53 W/m 27,2 km/h (4 Bft) 93,62 %
13.01.2017 15:44 2,8 C 2,8 C 0,6 C 86 % 0 lf 1001,3 hPa 0,0 l/m 0 min 0 min 42 W/m 25,1 km/h (4 Bft) 97,87 %
13.01.2017 15:46 2,8 C 2,8 C 1,1 C 87 % 0 lf 1001,4 hPa 0,0 l/m 2 min 0 min 66 W/m 23,0 km/h (4 Bft) 97,83 %
13.01.2017 15:48 2,7 C 2,8 C 1,1 C 87 % 0 lf 1001,3 hPa 0,0 l/m 2 min 0 min 79 W/m 16,7 km/h (3 Bft) 95,74 %
13.01.2017 15:50 2,7 C 3,3 C 1,1 C 87 % 0 lf 1001,4 hPa 0,0 l/m 2 min 0 min 64 W/m 20,9 km/h (4 Bft) 91,49 %
13.01.2017 15:52 2,7 C 3,3 C 1,1 C 87 % 0 lf 1001,3 hPa 0,0 l/m 0 min 0 min 42 W/m 23,0 km/h (4 Bft) 95,74 %
13.01.2017 15:54 2,7 C 2,8 C 1,1 C 87 % 0 lf 1001,3 hPa 0,0 l/m 0 min 0 min 30 W/m 25,1 km/h (4 Bft) 93,62 %
13.01.2017 15:56 2,7 C 2,8 C 0,6 C 87 % 0 lf 1001,3 hPa 0,0 l/m 0 min 0 min 32 W/m 23,0 km/h (4 Bft) 95,74 %
13.01.2017 15:58 2,6 C 2,8 C 0,6 C 87 % 0 lf 1001,3 hPa 0,0 l/m 0 min 0 min 33 W/m 18,8 km/h (3 Bft) 93,48 %
13.01.2017 16:00 2,6 C 2,8 C 0,6 C 87 % 0 lf 1001,3 hPa 0,0 l/m 0 min 0 min 35 W/m 20,9 km/h (4 Bft) 93,62 %
13.01.2017 16:02 2,6 C 2,8 C 0,6 C 87 % 0 lf 1001,3 hPa 0,0 l/m 0 min 0 min 33 W/m 23,0 km/h (4 Bft) 93,75 %
13.01.2017 16:04 2,5 C 2,8 C 0,6 C 87 % 0 lf 1001,3 hPa 0,0 l/m 0 min 0 min 27 W/m 25,1 km/h (4 Bft) 91,49 %
13.01.2017 16:06 2,5 C 2,8 C 0,6 C 86 % 0 lf 1001,3 hPa 0,0 l/m 0 min 0 min 23 W/m 25,1 km/h (4 Bft) 97,37 %
13.01.2017 16:08 2,4 C 2,8 C 0,6 C 86 % 0 lf 1001,3 hPa 0,0 l/m 0 min 0 min 21 W/m 23,0 km/h (4 Bft) 95,74 %
13.01.2017 16:10 2,4 C 2,8 C 0,6 C 86 % 0 lf 1001,2 hPa 0,0 l/m 0 min 0 min 21 W/m 25,1 km/h (4 Bft) 97,87 %
13.01.2017 16:12 2,4 C 2,8 C 0,6 C 86 % 0 lf 1001,2 hPa 0,0 l/m 0 min 0 min 23 W/m 18,8 km/h (3 Bft) 97,83 %
13.01.2017 16:14 2,4 C 2,8 C 0,6 C 86 % 0 lf 1001,2 hPa 0,0 l/m 0 min 0 min 28 W/m 14,6 km/h (3 Bft) 95,74 %
13.01.2017 16:16 2,4 C 2,8 C 0,6 C 86 % 0 lf 1001,2 hPa 0,0 l/m 0 min 0 min 31 W/m 20,9 km/h (4 Bft) 93,62 %
13.01.2017 16:18 2,4 C 2,8 C 0,6 C 86 % 0 lf 1001,2 hPa 0,0 l/m 0 min 0 min 27 W/m 25,1 km/h (4 Bft) 97,87 %
13.01.2017 16:20 2,4 C 2,8 C 0,6 C 86 % 0 lf 1001,2 hPa 0,0 l/m 0 min 0 min 22 W/m 23,0 km/h (4 Bft) 95,74 %
13.01.2017 16:22 2,4 C 2,8 C 0,6 C 86 % 0 lf 1001,3 hPa 0,0 l/m 0 min 0 min 20 W/m 25,1 km/h (4 Bft) 95,74 %
13.01.2017 16:24 2,4 C 2,8 C 0,6 C 86 % 0 lf 1001,2 hPa 0,0 l/m 0 min 0 min 19 W/m 18,8 km/h (3 Bft) 97,83 %
13.01.2017 16:26 2,3 C 2,2 C 0,6 C 86 % 0 lf 1001,2 hPa 0,0 l/m 0 min 0 min 18 W/m 18,8 km/h (3 Bft) 91,49 %
13.01.2017 16:28 2,3 C 2,2 C 0,0 C 86 % 0 lf 1001,3 hPa 0,0 l/m 0 min 0 min 18 W/m 20,9 km/h (4 Bft) 97,87 %
13.01.2017 16:30 2,3 C 2,2 C 0,0 C 86 % 0 lf 1001,3 hPa 0,0 l/m 0 min 0 min 17 W/m 12,6 km/h (3 Bft) 97,87 %
13.01.2017 16:32 2,3 C 2,2 C 0,0 C 86 % 0 lf 1001,2 hPa 0,0 l/m 0 min 0 min 13 W/m 20,9 km/h (4 Bft) 97,87 %
13.01.2017 16:34 2,3 C 2,2 C 0,0 C 86 % 0 lf 1001,3 hPa 0,0 l/m 0 min 0 min 11 W/m 25,1 km/h (4 Bft) 97,83 %
13.01.2017 16:36 2,3 C 2,2 C 0,0 C 87 % 0 lf 1001,3 hPa 0,0 l/m 0 min 0 min 10 W/m 18,8 km/h (3 Bft) 94,55 %
13.01.2017 16:38 2,2 C 2,2 C 0,0 C 86 % 0 lf 1001,3 hPa 0,0 l/m 0 min 0 min 10 W/m 29,3 km/h (5 Bft) 95,74 %
13.01.2017 16:40 2,2 C 2,2 C 0,6 C 87 % 0 lf 1001,4 hPa 0,0 l/m 0 min 0 min 11 W/m 25,1 km/h (4 Bft) 95,74 %
13.01.2017 16:42 2,2 C 2,2 C 0,6 C 87 % 0 lf 1001,4 hPa 0,0 l/m 0 min 0 min 11 W/m 31,4 km/h (5 Bft) 97,87 %
13.01.2017 16:44 2,2 C 2,2 C 0,6 C 87 % 0 lf 1001,3 hPa 0,0 l/m 0 min 0 min 11 W/m 35,6 km/h (5 Bft) 95,65 %
13.01.2017 16:46 2,2 C 2,2 C 0,6 C 87 % 0 lf 1001,3 hPa 0,0 l/m 0 min 0 min 9 W/m 25,1 km/h (4 Bft) 95,74 %
13.01.2017 16:48 2,2 C 2,2 C 0,0 C 88 % 0 lf 1001,3 hPa 0,0 l/m 0 min 0 min 9 W/m 23,0 km/h (4 Bft) 97,87 %
13.01.2017 16:50 2,2 C 2,2 C 0,0 C 88 % 0 lf 1001,4 hPa 0,0 l/m 0 min 0 min 8 W/m 27,2 km/h (4 Bft) 95,74 %
13.01.2017 16:52 2,2 C 2,2 C 0,0 C 88 % 0 lf 1001,4 hPa 0,0 l/m 0 min 0 min 7 W/m 23,0 km/h (4 Bft) 97,44 %
13.01.2017 16:54 2,2 C 2,2 C 0,0 C 88 % 0 lf 1001,4 hPa 0,0 l/m 0 min 0 min 5 W/m 18,8 km/h (3 Bft) 93,62 %
13.01.2017 16:56 2,1 C 2,2 C 0,0 C 88 % 0 lf 1001,4 hPa 0,0 l/m 0 min 0 min 5 W/m 25,1 km/h (4 Bft) 95,74 %
13.01.2017 16:58 2,1 C 2,2 C 0,0 C 88 % 0 lf 1001,3 hPa 0,0 l/m 0 min 0 min 5 W/m 23,0 km/h (4 Bft) 95,65 %
13.01.2017 17:00 2,1 C 2,2 C 0,0 C 88 % 0 lf 1001,3 hPa 0,0 l/m 0 min 0 min 2 W/m 37,7 km/h (5 Bft) 95,74 %
13.01.2017 17:02 2,0 C 2,2 C 0,0 C 88 % 0 lf 1001,3 hPa 0,0 l/m 0 min 0 min 0 W/m 33,5 km/h (5 Bft) 97,87 %
13.01.2017 17:04 1,9 C 2,2 C 0,0 C 88 % 0 lf 1001,2 hPa 0,0 l/m 0 min 0 min 0 W/m 29,3 km/h (5 Bft) 97,87 %
13.01.2017 17:06 1,9 C 2,2 C 0,0 C 88 % 0 lf 1001,3 hPa 0,0 l/m 0 min 0 min 0 W/m 18,8 km/h (3 Bft) 97,87 %
13.01.2017 17:08 1,9 C 2,2 C 0,0 C 88 % 0 lf 1001,3 hPa 0,0 l/m 0 min 0 min 0 W/m 25,1 km/h (4 Bft) 97,87 %
13.01.2017 17:10 1,9 C 2,2 C 0,6 C 89 % 0 lf 1001,4 hPa 0,0 l/m 0 min 2 min 0 W/m 23,0 km/h (4 Bft) 97,83 %
13.01.2017 17:12 1,9 C 2,2 C 0,6 C 89 % 0 lf 1001,5 hPa 0,0 l/m 0 min 0 min 0 W/m 25,1 km/h (4 Bft) 97,87 %
13.01.2017 17:14 1,9 C 2,2 C 0,6 C 89 % 0 lf 1001,5 hPa 0,0 l/m 0 min 0 min 0 W/m 29,3 km/h (5 Bft) 100,00 %
13.01.2017 17:16 1,9 C 2,2 C 0,6 C 89 % 0 lf 1001,4 hPa 0,0 l/m 0 min 0 min 0 W/m 31,4 km/h (5 Bft) 100,00 %
13.01.2017 17:18 1,9 C 2,2 C 0,6 C 89 % 0 lf 1001,5 hPa 0,0 l/m 0 min 0 min 0 W/m 29,3 km/h (5 Bft) 97,87 %
13.01.2017 17:20 1,9 C 2,2 C 0,6 C 89 % 1 lf 1001,5 hPa 0,0 l/m 0 min 2 min 0 W/m 37,7 km/h (5 Bft) 97,87 %
13.01.2017 17:22 1,9 C 2,2 C 0,6 C 90 % 1 lf 1001,5 hPa 0,0 l/m 0 min 0 min 0 W/m 31,4 km/h (5 Bft) 97,83 %
13.01.2017 17:24 1,9 C 2,2 C 0,6 C 90 % 1 lf 1001,5 hPa 0,0 l/m 0 min 0 min 0 W/m 31,4 km/h (5 Bft) 97,87 %
13.01.2017 17:26 1,9 C 2,2 C 0,6 C 90 % 2 lf 1001,5 hPa 0,0 l/m 0 min 2 min 0 W/m 35,6 km/h (5 Bft) 100,00 %
13.01.2017 17:28 1,8 C 2,2 C 0,6 C 90 % 1 lf 1001,5 hPa 0,0 l/m 0 min 0 min 0 W/m 25,1 km/h (4 Bft) 97,87 %
13.01.2017 17:30 1,8 C 2,2 C 0,6 C 90 % 0 lf 1001,4 hPa 0,0 l/m 0 min 0 min 0 W/m 29,3 km/h (5 Bft) 97,87 %
13.01.2017 17:32 1,8 C 2,2 C 0,6 C 90 % 0 lf 1001,5 hPa 0,0 l/m 0 min 0 min 0 W/m 25,1 km/h (4 Bft) 98,08 %
13.01.2017 17:34 1,8 C 2,2 C 0,6 C 91 % 0 lf 1001,5 hPa 0,0 l/m 0 min 0 min 0 W/m 35,6 km/h (5 Bft) 100,00 %
13.01.2017 17:38 1,7 C 2,2 C 0,6 C 91 % 0 lf 1001,5 hPa 0,0 l/m 0 min 0 min 0 W/m 37,7 km/h (5 Bft) 98,82 %
13.01.2017 17:40 1,7 C 1,7 C 0,6 C 91 % 0 lf 1001,4 hPa 0,0 l/m 0 min 0 min 0 W/m 37,7 km/h (5 Bft) 98,25 %
13.01.2017 17:42 1,7 C 1,7 C 0,6 C 91 % 0 lf 1001,5 hPa 0,0 l/m 0 min 0 min 0 W/m 35,6 km/h (5 Bft) 100,00 %
13.01.2017 17:44 1,7 C 2,2 C 0,6 C 91 % 0 lf 1001,5 hPa 0,0 l/m 0 min 0 min 0 W/m 23,0 km/h (4 Bft) 97,87 %
13.01.2017 17:46 1,7 C 1,7 C 0,6 C 91 % 0 lf 1001,4 hPa 0,0 l/m 0 min 0 min 0 W/m 23,0 km/h (4 Bft) 100,00 %
13.01.2017 17:48 1,7 C 1,7 C 0,6 C 91 % 0 lf 1001,4 hPa 0,0 l/m 0 min 0 min 0 W/m 29,3 km/h (5 Bft) 95,74 %
13.01.2017 17:50 1,7 C 2,2 C 0,6 C 91 % 0 lf 1001,3 hPa 0,0 l/m 0 min 0 min 0 W/m 27,2 km/h (4 Bft) 97,87 %
13.01.2017 17:52 1,7 C 2,2 C 0,6 C 92 % 0 lf 1001,4 hPa 0,0 l/m 0 min 0 min 0 W/m 31,4 km/h (5 Bft) 95,74 %
13.01.2017 17:54 1,7 C 2,2 C 0,6 C 92 % 0 lf 1001,4 hPa 0,0 l/m 0 min 0 min 0 W/m 27,2 km/h (4 Bft) 97,83 %
13.01.2017 17:56 1,7 C 2,2 C 0,6 C 92 % 0 lf 1001,4 hPa 0,0 l/m 0 min 0 min 0 W/m 25,1 km/h (4 Bft) 97,87 %
13.01.2017 17:58 1,7 C 2,2 C 0,6 C 92 % 0 lf 1001,4 hPa 0,0 l/m 0 min 0 min 0 W/m 20,9 km/h (4 Bft) 97,87 %
13.01.2017 18:00 1,7 C 2,2 C 0,6 C 92 % 0 lf 1001,4 hPa 0,0 l/m 0 min 0 min 0 W/m 18,8 km/h (3 Bft) 97,87 %
13.01.2017 18:02 1,7 C 2,2 C 0,6 C 92 % 0 lf 1001,3 hPa 0,0 l/m 0 min 0 min 0 W/m 20,9 km/h (4 Bft) 97,92 %
13.01.2017 18:04 1,7 C 2,2 C 0,6 C 92 % 0 lf 1001,3 hPa 0,0 l/m 0 min 0 min 0 W/m 27,2 km/h (4 Bft) 97,30 %
13.01.2017 18:06 1,7 C 2,2 C 0,6 C 92 % 0 lf 1001,3 hPa 0,0 l/m 0 min 0 min 0 W/m 27,2 km/h (4 Bft) 95,92 %
13.01.2017 18:08 1,7 C 2,2 C 0,6 C 92 % 0 lf 1001,2 hPa 0,0 l/m 0 min 0 min 0 W/m 23,0 km/h (4 Bft) 95,74 %
13.01.2017 18:10 1,7 C 2,2 C 0,6 C 92 % 0 lf 1001,2 hPa 0,0 l/m 0 min 0 min 0 W/m 23,0 km/h (4 Bft) 93,48 %
13.01.2017 18:12 1,7 C 2,2 C 0,6 C 92 % 0 lf 1001,2 hPa 0,0 l/m 0 min 0 min 0 W/m 20,9 km/h (4 Bft) 95,74 %
13.01.2017 18:14 1,7 C 2,2 C 0,6 C 92 % 0 lf 1001,2 hPa 0,0 l/m 0 min 0 min 0 W/m 27,2 km/h (4 Bft) 97,87 %
13.01.2017 18:16 1,7 C 2,2 C 0,6 C 92 % 0 lf 1001,2 hPa 0,0 l/m 0 min 0 min 0 W/m 27,2 km/h (4 Bft) 93,62 %
13.01.2017 18:18 1,7 C 2,2 C 0,6 C 92 % 0 lf 1001,2 hPa 0,0 l/m 0 min 0 min 0 W/m 16,7 km/h (3 Bft) 97,87 %
13.01.2017 18:20 1,7 C 2,2 C 0,6 C 92 % 0 lf 1001,2 hPa 0,0 l/m 0 min 0 min 0 W/m 25,1 km/h (4 Bft) 95,65 %
13.01.2017 18:22 1,7 C 2,2 C 0,6 C 92 % 0 lf 1001,2 hPa 0,0 l/m 0 min 0 min 0 W/m 27,2 km/h (4 Bft) 93,62 %
13.01.2017 18:24 1,7 C 2,2 C 0,6 C 92 % 0 lf 1001,2 hPa 0,0 l/m 0 min 0 min 0 W/m 20,9 km/h (4 Bft) 93,62 %
13.01.2017 18:26 1,7 C 2,2 C 0,6 C 92 % 0 lf 1001,3 hPa 0,0 l/m 0 min 0 min 0 W/m 27,2 km/h (4 Bft) 97,87 %
13.01.2017 18:28 1,7 C 2,2 C 0,6 C 92 % 0 lf 1001,3 hPa 0,0 l/m 0 min 0 min 0 W/m 23,0 km/h (4 Bft) 93,62 %
13.01.2017 18:30 1,7 C 2,2 C 0,6 C 92 % 0 lf 1001,2 hPa 0,0 l/m 0 min 0 min 0 W/m 27,2 km/h (4 Bft) 91,49 %
13.01.2017 18:32 1,7 C 2,2 C 0,6 C 92 % 0 lf 1001,2 hPa 0,0 l/m 0 min 0 min 0 W/m 27,2 km/h (4 Bft) 91,30 %
13.01.2017 18:34 1,7 C 2,2 C 0,6 C 92 % 0 lf 1001,1 hPa 0,0 l/m 0 min 0 min 0 W/m 23,0 km/h (4 Bft) 91,49 %
13.01.2017 18:36 1,7 C 2,2 C 0,6 C 92 % 0 lf 1001,1 hPa 0,0 l/m 0 min 0 min 0 W/m 25,1 km/h (4 Bft) 91,49 %
13.01.2017 18:38 1,7 C 2,2 C 0,6 C 92 % 0 lf 1001,1 hPa 0,0 l/m 0 min 0 min 0 W/m 29,3 km/h (5 Bft) 89,36 %
13.01.2017 18:40 1,7 C 2,2 C 0,6 C 92 % 0 lf 1001,0 hPa 0,0 l/m 0 min 0 min 0 W/m 23,0 km/h (4 Bft) 93,62 %
13.01.2017 18:42 1,7 C 2,2 C 0,6 C 92 % 0 lf 1000,8 hPa 0,0 l/m 0 min 0 min 0 W/m 25,1 km/h (4 Bft) 93,62 %
13.01.2017 18:44 1,7 C 2,2 C 0,6 C 92 % 0 lf 1000,7 hPa 0,0 l/m 0 min 0 min 0 W/m 23,0 km/h (4 Bft) 93,48 %
13.01.2017 18:46 1,7 C 1,7 C 0,6 C 92 % 0 lf 1000,7 hPa 0,0 l/m 0 min 0 min 0 W/m 18,8 km/h (3 Bft) 91,49 %
13.01.2017 18:48 1,7 C 2,2 C 0,6 C 92 % 0 lf 1000,9 hPa 0,0 l/m 0 min 0 min 0 W/m 25,1 km/h (4 Bft) 93,62 %
13.01.2017 18:50 1,7 C 2,2 C 0,6 C 92 % 0 lf 1001,0 hPa 0,0 l/m 0 min 0 min 0 W/m 27,2 km/h (4 Bft) 93,62 %
13.01.2017 18:52 1,7 C 2,2 C 0,6 C 92 % 0 lf 1001,0 hPa 0,0 l/m 0 min 0 min 0 W/m 25,1 km/h (4 Bft) 95,74 %
13.01.2017 18:54 1,7 C 2,2 C 0,6 C 92 % 0 lf 1001,1 hPa 0,0 l/m 0 min 0 min 0 W/m 18,8 km/h (3 Bft) 95,65 %
13.01.2017 18:56 1,7 C 2,2 C 0,6 C 92 % 0 lf 1001,1 hPa 0,0 l/m 0 min 0 min 0 W/m 20,9 km/h (4 Bft) 93,62 %
13.01.2017 18:58 1,7 C 2,2 C 0,6 C 92 % 0 lf 1001,1 hPa 0,0 l/m 0 min 0 min 0 W/m 29,3 km/h (5 Bft) 95,74 %
13.01.2017 19:00 1,7 C 2,2 C 0,6 C 92 % 0 lf 1001,1 hPa 0,0 l/m 0 min 0 min 0 W/m 29,3 km/h (5 Bft) 91,49 %
13.01.2017 19:02 1,7 C 2,2 C 0,6 C 92 % 0 lf 1001,1 hPa 0,0 l/m 0 min 0 min 0 W/m 29,3 km/h (5 Bft) 94,34 %
13.01.2017 19:04 1,7 C 2,2 C 0,6 C 92 % 0 lf 1001,1 hPa 0,0 l/m 0 min 0 min 0 W/m 27,2 km/h (4 Bft) 95,65 %
13.01.2017 19:06 1,7 C 2,2 C 0,6 C 92 % 0 lf 1001,0 hPa 0,0 l/m 0 min 2 min 0 W/m 29,3 km/h (5 Bft) 98,00 %
13.01.2017 19:08 1,7 C 2,2 C 0,6 C 92 % 1 lf 1001,0 hPa 0,0 l/m 0 min 2 min 0 W/m 29,3 km/h (5 Bft) 97,87 %
13.01.2017 19:10 1,7 C 2,2 C 0,6 C 92 % 3 lf 1001,1 hPa 0,0 l/m 0 min 2 min 0 W/m 25,1 km/h (4 Bft) 94,29 %
13.01.2017 19:12 1,8 C 1,7 C 0,6 C 92 % 7 lf 1001,0 hPa 0,0 l/m 0 min 2 min 0 W/m 25,1 km/h (4 Bft) 98,25 %
13.01.2017 19:14 1,8 C 1,7 C 0,0 C 92 % 15 lf 1000,9 hPa 0,0 l/m 0 min 2 min 0 W/m 33,5 km/h (5 Bft) 100,00 %
13.01.2017 19:16 1,7 C 1,7 C 0,0 C 92 % 15 lf 1000,9 hPa 0,0 l/m 0 min 2 min 0 W/m 29,3 km/h (5 Bft) 97,83 %
13.01.2017 19:18 1,7 C 1,7 C 0,0 C 92 % 15 lf 1001,0 hPa 0,0 l/m 0 min 2 min 0 W/m 23,0 km/h (4 Bft) 100,00 %
13.01.2017 19:20 1,7 C 1,7 C 0,0 C 92 % 15 lf 1001,0 hPa 0,0 l/m 0 min 2 min 0 W/m 31,4 km/h (5 Bft) 100,00 %
13.01.2017 19:22 1,7 C 1,1 C 0,0 C 92 % 15 lf 1001,0 hPa 0,0 l/m 0 min 2 min 0 W/m 20,9 km/h (4 Bft) 100,00 %
13.01.2017 19:24 1,7 C 1,1 C 0,0 C 92 % 15 lf 1001,0 hPa 0,0 l/m 0 min 2 min 0 W/m 20,9 km/h (4 Bft) 95,74 %
13.01.2017 19:26 1,6 C 1,1 C 0,0 C 92 % 15 lf 1000,9 hPa 0,0 l/m 0 min 2 min 0 W/m 14,6 km/h (3 Bft) 97,87 %
13.01.2017 19:28 1,6 C 1,1 C 0,0 C 93 % 15 lf 1001,0 hPa 0,0 l/m 0 min 2 min 0 W/m 33,5 km/h (5 Bft) 95,65 %
13.01.2017 19:30 1,6 C 1,1 C 0,0 C 93 % 15 lf 1000,9 hPa 0,0 l/m 0 min 2 min 0 W/m 25,1 km/h (4 Bft) 93,62 %
13.01.2017 19:32 1,6 C 1,1 C 0,0 C 93 % 15 lf 1001,0 hPa 0,0 l/m 0 min 2 min 0 W/m 25,1 km/h (4 Bft) 97,92 %
13.01.2017 19:34 1,6 C 1,1 C 0,0 C 93 % 15 lf 1001,0 hPa 0,0 l/m 0 min 2 min 0 W/m 25,1 km/h (4 Bft) 97,87 %
13.01.2017 19:36 1,5 C 1,1 C -0,6 C 93 % 15 lf 1000,9 hPa 0,0 l/m 0 min 2 min 0 W/m 27,2 km/h (4 Bft) 94,74 %
13.01.2017 19:38 1,5 C 1,1 C -0,6 C 93 % 15 lf 1001,0 hPa 0,0 l/m 0 min 2 min 0 W/m 25,1 km/h (4 Bft) 95,74 %
13.01.2017 19:40 1,4 C 1,1 C -0,6 C 93 % 15 lf 1001,0 hPa 0,2 l/m 0 min 2 min 0 W/m 23,0 km/h (4 Bft) 93,62 %
13.01.2017 19:42 1,4 C 1,1 C -0,6 C 93 % 15 lf 1001,0 hPa 0,0 l/m 0 min 2 min 0 W/m 25,1 km/h (4 Bft) 97,83 %
13.01.2017 19:44 1,3 C 1,1 C -0,6 C 93 % 15 lf 1001,0 hPa 0,0 l/m 0 min 2 min 0 W/m 23,0 km/h (4 Bft) 97,87 %
13.01.2017 19:46 1,3 C 1,1 C -0,6 C 93 % 15 lf 1001,0 hPa 0,0 l/m 0 min 2 min 0 W/m 20,9 km/h (4 Bft) 95,74 %
13.01.2017 19:48 1,3 C 0,6 C -1,1 C 93 % 15 lf 1001,1 hPa 0,0 l/m 0 min 2 min 0 W/m 18,8 km/h (3 Bft) 97,87 %
13.01.2017 19:50 1,2 C 0,6 C -1,1 C 93 % 15 lf 1001,1 hPa 0,0 l/m 0 min 2 min 0 W/m 18,8 km/h (3 Bft) 97,92 %
13.01.2017 19:52 1,2 C 0,6 C -1,1 C 93 % 15 lf 1001,1 hPa 0,0 l/m 0 min 2 min 0 W/m 23,0 km/h (4 Bft) 96,15 %
13.01.2017 19:54 1,1 C 0,6 C -1,1 C 93 % 15 lf 1001,0 hPa 0,0 l/m 0 min 2 min 0 W/m 20,9 km/h (4 Bft) 95,74 %
13.01.2017 19:56 1,0 C 0,0 C -1,1 C 93 % 15 lf 1001,0 hPa 0,0 l/m 0 min 2 min 0 W/m 18,8 km/h (3 Bft) 95,74 %
13.01.2017 19:58 0,9 C 0,0 C -1,1 C 93 % 15 lf 1001,0 hPa 0,0 l/m 0 min 2 min 0 W/m 18,8 km/h (3 Bft) 97,87 %
13.01.2017 20:00 0,9 C 0,0 C -1,1 C 94 % 15 lf 1001,1 hPa 0,0 l/m 0 min 2 min 0 W/m 25,1 km/h (4 Bft) 97,87 %
13.01.2017 20:02 0,9 C 0,0 C -1,1 C 94 % 15 lf 1001,1 hPa 0,0 l/m 0 min 2 min 0 W/m 27,2 km/h (4 Bft) 97,87 %
13.01.2017 20:04 0,8 C 0,0 C -1,1 C 94 % 15 lf 1001,2 hPa 0,0 l/m 0 min 2 min 0 W/m 31,4 km/h (5 Bft) 97,87 %
13.01.2017 20:06 0,8 C 0,0 C -1,1 C 94 % 15 lf 1001,2 hPa 0,0 l/m 0 min 2 min 0 W/m 23,0 km/h (4 Bft) 94,74 %
13.01.2017 20:08 0,7 C 0,0 C -1,1 C 94 % 15 lf 1001,2 hPa 0,0 l/m 0 min 2 min 0 W/m 23,0 km/h (4 Bft) 95,74 %
13.01.2017 20:10 0,7 C 0,0 C -1,1 C 94 % 15 lf 1001,1 hPa 0,0 l/m 0 min 2 min 0 W/m 23,0 km/h (4 Bft) 93,62 %
13.01.2017 20:12 0,6 C 0,0 C -1,1 C 94 % 15 lf 1001,2 hPa 0,0 l/m 0 min 2 min 0 W/m 23,0 km/h (4 Bft) 97,87 %
13.01.2017 20:14 0,6 C 0,0 C -1,1 C 94 % 15 lf 1001,1 hPa 0,0 l/m 0 min 2 min 0 W/m 23,0 km/h (4 Bft) 95,74 %
13.01.2017 20:16 0,5 C 0,0 C -1,1 C 94 % 15 lf 1001,1 hPa 0,0 l/m 0 min 2 min 0 W/m 20,9 km/h (4 Bft) 95,74 %
13.01.2017 20:18 0,5 C 0,0 C -1,1 C 94 % 15 lf 1001,1 hPa 0,0 l/m 0 min 2 min 0 W/m 23,0 km/h (4 Bft) 91,30 %
13.01.2017 20:20 0,5 C 0,0 C -1,1 C 94 % 15 lf 1001,1 hPa 0,0 l/m 0 min 2 min 0 W/m 23,0 km/h (4 Bft) 93,62 %
13.01.2017 20:22 0,5 C 0,0 C -1,1 C 94 % 15 lf 1001,2 hPa 0,0 l/m 0 min 2 min 0 W/m 20,9 km/h (4 Bft) 93,62 %
13.01.2017 20:24 0,5 C 0,0 C -1,1 C 95 % 15 lf 1001,1 hPa 0,0 l/m 0 min 2 min 0 W/m 18,8 km/h (3 Bft) 95,74 %
13.01.2017 20:26 0,5 C 0,0 C -1,1 C 95 % 15 lf 1001,2 hPa 0,0 l/m 0 min 2 min 0 W/m 20,9 km/h (4 Bft) 97,87 %
13.01.2017 20:28 0,5 C 0,0 C -1,1 C 95 % 15 lf 1001,2 hPa 0,0 l/m 0 min 2 min 0 W/m 16,7 km/h (3 Bft) 95,65 %
13.01.2017 20:30 0,5 C 0,0 C -1,1 C 95 % 15 lf 1001,2 hPa 0,0 l/m 0 min 2 min 0 W/m 20,9 km/h (4 Bft) 93,62 %
13.01.2017 20:32 0,5 C 0,0 C -1,1 C 95 % 15 lf 1001,3 hPa 0,0 l/m 0 min 2 min 0 W/m 18,8 km/h (3 Bft) 95,83 %
13.01.2017 20:34 0,5 C 0,0 C -1,1 C 95 % 15 lf 1001,2 hPa 0,0 l/m 0 min 2 min 0 W/m 20,9 km/h (4 Bft) 93,62 %
13.01.2017 20:36 0,5 C 0,0 C -1,1 C 95 % 15 lf 1001,3 hPa 0,0 l/m 0 min 2 min 0 W/m 14,6 km/h (3 Bft) 94,55 %
13.01.2017 20:38 0,5 C 0,0 C -1,1 C 95 % 15 lf 1001,4 hPa 0,0 l/m 0 min 2 min 0 W/m 14,6 km/h (3 Bft) 86,96 %
13.01.2017 20:40 0,5 C 0,0 C -1,1 C 95 % 15 lf 1001,5 hPa 0,0 l/m 0 min 2 min 0 W/m 18,8 km/h (3 Bft) 97,87 %
13.01.2017 20:42 0,5 C 0,0 C -1,1 C 95 % 15 lf 1001,5 hPa 0,0 l/m 0 min 2 min 0 W/m 16,7 km/h (3 Bft) 97,87 %
13.01.2017 20:44 0,5 C 0,0 C -1,1 C 95 % 15 lf 1001,5 hPa 0,0 l/m 0 min 2 min 0 W/m 12,6 km/h (3 Bft) 97,87 %
13.01.2017 20:46 0,5 C 0,0 C -1,1 C 95 % 15 lf 1001,5 hPa 0,0 l/m 0 min 2 min 0 W/m 14,6 km/h (3 Bft) 97,87 %
13.01.2017 20:48 0,5 C 0,0 C -1,1 C 95 % 15 lf 1001,4 hPa 0,0 l/m 0 min 2 min 0 W/m 16,7 km/h (3 Bft) 97,87 %
13.01.2017 20:50 0,5 C 0,6 C -1,1 C 95 % 15 lf 1001,4 hPa 0,0 l/m 0 min 2 min 0 W/m 14,6 km/h (3 Bft) 100,00 %
13.01.2017 20:52 0,5 C 0,6 C -1,1 C 95 % 15 lf 1001,4 hPa 0,0 l/m 0 min 0 min 0 W/m 14,6 km/h (3 Bft) 100,00 %
13.01.2017 20:54 0,5 C 0,6 C -1,1 C 95 % 15 lf 1001,5 hPa 0,0 l/m 0 min 0 min 0 W/m 18,8 km/h (3 Bft) 97,87 %
13.01.2017 20:56 0,5 C 0,6 C -1,1 C 95 % 15 lf 1001,4 hPa 0,0 l/m 0 min 0 min 0 W/m 12,6 km/h (3 Bft) 93,62 %
13.01.2017 20:58 0,5 C 0,6 C -1,1 C 95 % 15 lf 1001,4 hPa 0,2 l/m 0 min 2 min 0 W/m 16,7 km/h (3 Bft) 97,87 %
13.01.2017 21:00 0,5 C 0,6 C -1,1 C 96 % 15 lf 1001,4 hPa 0,0 l/m 0 min 0 min 0 W/m 18,8 km/h (3 Bft) 100,00 %
13.01.2017 21:02 0,5 C 0,6 C -1,1 C 96 % 15 lf 1001,3 hPa 0,0 l/m 0 min 0 min 0 W/m 18,8 km/h (3 Bft) 95,83 %
13.01.2017 21:04 0,5 C 0,6 C -1,1 C 96 % 15 lf 1001,4 hPa 0,0 l/m 0 min 0 min 0 W/m 14,6 km/h (3 Bft) 95,74 %
13.01.2017 21:06 0,5 C 0,6 C -1,1 C 96 % 15 lf 1001,3 hPa 0,0 l/m 0 min 0 min 0 W/m 14,6 km/h (3 Bft) 94,74 %
13.01.2017 21:08 0,6 C 0,6 C -1,1 C 96 % 15 lf 1001,4 hPa 0,0 l/m 0 min 0 min 0 W/m 18,8 km/h (3 Bft) 93,62 %
13.01.2017 21:10 0,6 C 0,6 C -1,1 C 96 % 15 lf 1001,3 hPa 0,0 l/m 0 min 0 min 0 W/m 12,6 km/h (3 Bft) 95,74 %
13.01.2017 21:12 0,7 C 0,6 C -1,1 C 96 % 15 lf 1001,3 hPa 0,0 l/m 0 min 0 min 0 W/m 18,8 km/h (3 Bft) 93,62 %
13.01.2017 21:14 0,7 C 0,6 C -1,1 C 96 % 15 lf 1001,4 hPa 0,0 l/m 0 min 0 min 0 W/m 16,7 km/h (3 Bft) 93,48 %
13.01.2017 21:16 0,7 C 1,1 C -1,1 C 96 % 15 lf 1001,3 hPa 0,0 l/m 0 min 0 min 0 W/m 18,8 km/h (3 Bft) 95,74 %
13.01.2017 21:18 0,8 C 1,1 C -1,1 C 96 % 15 lf 1001,4 hPa 0,0 l/m 0 min 0 min 0 W/m 16,7 km/h (3 Bft) 91,49 %
13.01.2017 21:20 0,8 C 1,1 C -1,1 C 96 % 15 lf 1001,5 hPa 0,0 l/m 0 min 0 min 0 W/m 16,7 km/h (3 Bft) 95,83 %
13.01.2017 21:22 0,8 C 1,1 C -1,1 C 96 % 15 lf 1001,5 hPa 0,0 l/m 0 min 0 min 0 W/m 16,7 km/h (3 Bft) 91,49 %
13.01.2017 21:24 0,8 C 1,1 C -1,1 C 96 % 15 lf 1001,4 hPa 0,0 l/m 0 min 0 min 0 W/m 14,6 km/h (3 Bft) 96,15 %
13.01.2017 21:26 0,9 C 1,1 C -1,1 C 96 % 15 lf 1001,6 hPa 0,0 l/m 0 min 2 min 0 W/m 12,6 km/h (3 Bft) 95,74 %
13.01.2017 21:28 0,9 C 1,1 C -1,1 C 96 % 15 lf 1001,6 hPa 0,0 l/m 0 min 2 min 0 W/m 14,6 km/h (3 Bft) 93,62 %
13.01.2017 21:30 0,9 C 1,1 C -1,1 C 96 % 15 lf 1001,6 hPa 0,2 l/m 0 min 2 min 0 W/m 10,5 km/h (2 Bft) 93,62 %
13.01.2017 21:32 0,9 C 1,1 C -1,1 C 96 % 15 lf 1001,5 hPa 0,0 l/m 0 min 0 min 0 W/m 16,7 km/h (3 Bft) 91,67 %
13.01.2017 21:34 1,0 C 1,1 C -1,1 C 96 % 15 lf 1001,7 hPa 0,0 l/m 0 min 0 min 0 W/m 16,7 km/h (3 Bft) 93,62 %
13.01.2017 21:36 1,0 C 1,1 C -0,6 C 96 % 15 lf 1001,6 hPa 0,0 l/m 0 min 0 min 0 W/m 18,8 km/h (3 Bft) 91,30 %
13.01.2017 21:38 1,1 C 1,1 C -0,6 C 97 % 15 lf 1001,5 hPa 0,0 l/m 0 min 0 min 0 W/m 20,9 km/h (4 Bft) 93,62 %
13.01.2017 21:40 1,1 C 1,1 C -0,6 C 97 % 15 lf 1001,7 hPa 0,0 l/m 0 min 0 min 0 W/m 25,1 km/h (4 Bft) 93,62 %
13.01.2017 21:42 1,2 C 1,7 C -0,6 C 97 % 15 lf 1001,8 hPa 0,0 l/m 0 min 0 min 0 W/m 23,0 km/h (4 Bft) 91,49 %
13.01.2017 21:44 1,2 C 1,7 C -0,6 C 97 % 15 lf 1001,6 hPa 0,0 l/m 0 min 2 min 0 W/m 20,9 km/h (4 Bft) 95,74 %
13.01.2017 21:46 1,3 C 1,7 C 0,0 C 97 % 15 lf 1001,7 hPa 0,0 l/m 0 min 2 min 0 W/m 20,9 km/h (4 Bft) 97,87 %
13.01.2017 21:48 1,3 C 1,7 C 0,0 C 97 % 15 lf 1001,7 hPa 0,0 l/m 0 min 0 min 0 W/m 23,0 km/h (4 Bft) 97,83 %
13.01.2017 21:50 1,4 C 1,7 C 0,0 C 97 % 15 lf 1001,7 hPa 0,0 l/m 0 min 0 min 0 W/m 20,9 km/h (4 Bft) 93,62 %
13.01.2017 21:52 1,4 C 1,7 C 0,0 C 97 % 15 lf 1001,8 hPa 0,2 l/m 0 min 0 min 0 W/m 18,8 km/h (3 Bft) 93,62 %
13.01.2017 21:54 1,5 C 1,7 C 0,0 C 97 % 15 lf 1001,8 hPa 0,0 l/m 0 min 0 min 0 W/m 25,1 km/h (4 Bft) 95,74 %
13.01.2017 21:56 1,6 C 1,7 C 0,0 C 97 % 15 lf 1001,8 hPa 0,0 l/m 0 min 0 min 0 W/m 20,9 km/h (4 Bft) 97,87 %
13.01.2017 21:58 1,6 C 1,7 C 0,0 C 97 % 15 lf 1001,8 hPa 0,0 l/m 0 min 2 min 0 W/m 16,7 km/h (3 Bft) 95,74 %
13.01.2017 22:00 1,7 C 1,7 C 0,0 C 97 % 15 lf 1001,8 hPa 0,0 l/m 0 min 0 min 0 W/m 25,1 km/h (4 Bft) 97,83 %
13.01.2017 22:02 1,7 C 2,2 C 0,0 C 97 % 15 lf 1001,9 hPa 0,0 l/m 0 min 2 min 0 W/m 18,8 km/h (3 Bft) 93,75 %
13.01.2017 22:04 1,7 C 2,2 C 0,0 C 97 % 15 lf 1001,9 hPa 0,0 l/m 0 min 0 min 0 W/m 25,1 km/h (4 Bft) 97,87 %
13.01.2017 22:06 1,8 C 1,7 C 0,0 C 97 % 15 lf 1001,9 hPa 0,0 l/m 0 min 0 min 0 W/m 16,7 km/h (3 Bft) 100,00 %
13.01.2017 22:08 1,8 C 2,2 C 0,0 C 97 % 15 lf 1001,9 hPa 0,2 l/m 0 min 0 min 0 W/m 23,0 km/h (4 Bft) 93,62 %
13.01.2017 22:10 1,8 C 2,2 C 0,0 C 97 % 15 lf 1002,0 hPa 0,0 l/m 0 min 2 min 0 W/m 23,0 km/h (4 Bft) 95,74 %
13.01.2017 22:12 1,8 C 2,2 C 0,0 C 97 % 15 lf 1002,0 hPa 0,0 l/m 0 min 0 min 0 W/m 29,3 km/h (5 Bft) 95,74 %
13.01.2017 22:14 1,9 C 2,2 C 0,0 C 97 % 15 lf 1002,1 hPa 0,0 l/m 0 min 2 min 0 W/m 25,1 km/h (4 Bft) 95,65 %
13.01.2017 22:16 1,9 C 2,2 C 0,0 C 97 % 15 lf 1002,1 hPa 0,0 l/m 0 min 2 min 0 W/m 29,3 km/h (5 Bft) 97,87 %
13.01.2017 22:18 1,9 C 2,2 C 0,0 C 97 % 15 lf 1002,2 hPa 0,0 l/m 0 min 2 min 0 W/m 20,9 km/h (4 Bft) 89,36 %
13.01.2017 22:20 2,0 C 2,2 C 0,6 C 97 % 15 lf 1002,3 hPa 0,0 l/m 0 min 2 min 0 W/m 27,2 km/h (4 Bft) 97,92 %
13.01.2017 22:22 2,1 C 2,2 C 0,6 C 97 % 15 lf 1002,2 hPa 0,2 l/m 0 min 2 min 0 W/m 27,2 km/h (4 Bft) 92,31 %
13.01.2017 22:24 2,1 C 2,2 C 0,6 C 97 % 15 lf 1002,3 hPa 0,0 l/m 0 min 2 min 0 W/m 16,7 km/h (3 Bft) 95,74 %
13.01.2017 22:26 2,1 C 2,2 C 0,6 C 97 % 15 lf 1002,3 hPa 0,0 l/m 0 min 0 min 0 W/m 20,9 km/h (4 Bft) 97,87 %
13.01.2017 22:28 2,1 C 2,2 C 0,6 C 97 % 15 lf 1002,3 hPa 0,0 l/m 0 min 0 min 0 W/m 18,8 km/h (3 Bft) 95,74 %
13.01.2017 22:30 2,1 C 2,2 C 0,6 C 97 % 15 lf 1002,5 hPa 0,0 l/m 0 min 0 min 0 W/m 23,0 km/h (4 Bft) 95,74 %
13.01.2017 22:32 2,2 C 2,2 C 0,6 C 97 % 15 lf 1002,5 hPa 0,0 l/m 0 min 0 min 0 W/m 18,8 km/h (3 Bft) 95,83 %
13.01.2017 22:34 2,2 C 2,2 C 0,6 C 97 % 15 lf 1002,5 hPa 0,0 l/m 0 min 0 min 0 W/m 23,0 km/h (4 Bft) 95,65 %
13.01.2017 22:36 2,2 C 2,2 C 0,6 C 97 % 15 lf 1002,5 hPa 0,0 l/m 0 min 0 min 0 W/m 18,8 km/h (3 Bft) 95,74 %
13.01.2017 22:38 2,2 C 2,2 C 0,6 C 97 % 15 lf 1002,5 hPa 0,2 l/m 0 min 2 min 0 W/m 20,9 km/h (4 Bft) 97,87 %
13.01.2017 22:40 2,3 C 2,2 C 0,6 C 97 % 15 lf 1002,5 hPa 0,0 l/m 0 min 0 min 0 W/m 25,1 km/h (4 Bft) 95,74 %
13.01.2017 22:42 2,3 C 2,8 C 0,6 C 97 % 15 lf 1002,5 hPa 0,0 l/m 0 min 2 min 0 W/m 23,0 km/h (4 Bft) 100,00 %
13.01.2017 22:44 2,3 C 2,8 C 0,6 C 97 % 15 lf 1002,6 hPa 0,0 l/m 0 min 0 min 0 W/m 23,0 km/h (4 Bft) 97,87 %
13.01.2017 22:46 2,3 C 2,8 C 0,6 C 97 % 15 lf 1002,6 hPa 0,2 l/m 0 min 2 min 0 W/m 23,0 km/h (4 Bft) 100,00 %
13.01.2017 22:48 2,4 C 2,8 C 0,6 C 97 % 15 lf 1002,6 hPa 0,0 l/m 0 min 0 min 0 W/m 27,2 km/h (4 Bft) 100,00 %
13.01.2017 22:50 2,4 C 2,8 C 0,6 C 97 % 15 lf 1002,7 hPa 0,0 l/m 0 min 0 min 0 W/m 20,9 km/h (4 Bft) 97,87 %
13.01.2017 22:52 2,4 C 2,8 C 0,6 C 97 % 15 lf 1002,8 hPa 0,0 l/m 0 min 0 min 0 W/m 20,9 km/h (4 Bft) 100,00 %
13.01.2017 22:54 2,4 C 2,8 C 0,6 C 97 % 15 lf 1002,8 hPa 0,0 l/m 0 min 2 min 0 W/m 18,8 km/h (3 Bft) 100,00 %
13.01.2017 22:56 2,5 C 2,8 C 0,6 C 97 % 15 lf 1002,8 hPa 0,0 l/m 0 min 2 min 0 W/m 29,3 km/h (5 Bft) 100,00 %
13.01.2017 22:58 2,5 C 2,8 C 0,6 C 97 % 15 lf 1002,9 hPa 0,0 l/m 0 min 0 min 0 W/m 23,0 km/h (4 Bft) 97,83 %
13.01.2017 23:00 2,6 C 2,8 C 0,6 C 97 % 15 lf 1002,9 hPa 0,2 l/m 0 min 0 min 0 W/m 23,0 km/h (4 Bft) 95,74 %
13.01.2017 23:02 2,6 C 2,8 C 1,1 C 97 % 15 lf 1003,0 hPa 0,0 l/m 0 min 2 min 0 W/m 20,9 km/h (4 Bft) 100,00 %
13.01.2017 23:04 2,6 C 2,8 C 0,6 C 97 % 15 lf 1003,0 hPa 0,0 l/m 0 min 2 min 0 W/m 23,0 km/h (4 Bft) 93,62 %
13.01.2017 23:06 2,6 C 2,8 C 1,1 C 97 % 15 lf 1003,0 hPa 0,0 l/m 0 min 2 min 0 W/m 23,0 km/h (4 Bft) 100,00 %
13.01.2017 23:08 2,7 C 2,8 C 1,1 C 97 % 15 lf 1003,0 hPa 0,0 l/m 0 min 0 min 0 W/m 25,1 km/h (4 Bft) 100,00 %
13.01.2017 23:10 2,7 C 2,8 C 1,1 C 98 % 15 lf 1003,0 hPa 0,0 l/m 0 min 0 min 0 W/m 31,4 km/h (5 Bft) 97,87 %
13.01.2017 23:12 2,7 C 2,8 C 1,1 C 98 % 15 lf 1003,0 hPa 0,0 l/m 0 min 0 min 0 W/m 27,2 km/h (4 Bft) 100,00 %
13.01.2017 23:14 2,7 C 2,8 C 1,1 C 98 % 15 lf 1003,0 hPa 0,2 l/m 0 min 2 min 0 W/m 27,2 km/h (4 Bft) 100,00 %
13.01.2017 23:16 2,7 C 2,8 C 1,1 C 98 % 15 lf 1003,0 hPa 0,0 l/m 0 min 0 min 0 W/m 25,1 km/h (4 Bft) 97,87 %
13.01.2017 23:18 2,7 C 2,8 C 1,1 C 97 % 15 lf 1003,0 hPa 0,0 l/m 0 min 0 min 0 W/m 16,7 km/h (3 Bft) 97,87 %
13.01.2017 23:20 2,7 C 2,8 C 1,1 C 97 % 15 lf 1003,0 hPa 0,0 l/m 0 min 0 min 0 W/m 23,0 km/h (4 Bft) 100,00 %
13.01.2017 23:22 2,8 C 2,8 C 1,1 C 97 % 15 lf 1003,0 hPa 0,0 l/m 0 min 2 min 0 W/m 29,3 km/h (5 Bft) 100,00 %
13.01.2017 23:24 2,8 C 2,8 C 0,6 C 97 % 15 lf 1003,1 hPa 0,0 l/m 0 min 0 min 0 W/m 29,3 km/h (5 Bft) 98,11 %
13.01.2017 23:26 2,8 C 2,8 C 1,1 C 97 % 15 lf 1003,2 hPa 0,0 l/m 0 min 2 min 0 W/m 29,3 km/h (5 Bft) 90,24 %
13.01.2017 23:28 2,8 C 2,8 C 0,6 C 97 % 15 lf 1003,1 hPa 0,0 l/m 0 min 0 min 0 W/m 23,0 km/h (4 Bft) 100,00 %
13.01.2017 23:30 2,8 C 2,8 C 0,6 C 97 % 15 lf 1003,3 hPa 0,0 l/m 0 min 0 min 0 W/m 23,0 km/h (4 Bft) 100,00 %
13.01.2017 23:32 2,8 C 2,8 C 1,1 C 97 % 15 lf 1003,3 hPa 0,0 l/m 0 min 0 min 0 W/m 20,9 km/h (4 Bft) 98,11 %
13.01.2017 23:34 2,8 C 2,8 C 1,1 C 97 % 15 lf 1003,3 hPa 0,0 l/m 0 min 2 min 0 W/m 27,2 km/h (4 Bft) 95,74 %
13.01.2017 23:36 2,8 C 2,8 C 1,1 C 97 % 15 lf 1003,4 hPa 0,0 l/m 0 min 2 min 0 W/m 35,6 km/h (5 Bft) 97,87 %
13.01.2017 23:38 2,9 C 2,8 C 1,1 C 97 % 14 lf 1003,4 hPa 0,0 l/m 0 min 2 min 0 W/m 23,0 km/h (4 Bft) 97,87 %
13.01.2017 23:40 2,9 C 2,8 C 1,1 C 97 % 14 lf 1003,4 hPa 0,0 l/m 0 min 2 min 0 W/m 31,4 km/h (5 Bft) 97,87 %
13.01.2017 23:42 2,9 C 2,8 C 1,1 C 97 % 14 lf 1003,5 hPa 0,2 l/m 0 min 0 min 0 W/m 27,2 km/h (4 Bft) 95,74 %
13.01.2017 23:44 2,9 C 2,8 C 1,1 C 97 % 14 lf 1003,5 hPa 0,0 l/m 0 min 2 min 0 W/m 29,3 km/h (5 Bft) 93,48 %
13.01.2017 23:46 2,9 C 3,3 C 1,1 C 97 % 13 lf 1003,5 hPa 0,0 l/m 0 min 2 min 0 W/m 29,3 km/h (5 Bft) 93,62 %
13.01.2017 23:48 2,9 C 2,8 C 1,1 C 97 % 12 lf 1003,5 hPa 0,0 l/m 0 min 2 min 0 W/m 25,1 km/h (4 Bft) 93,62 %
13.01.2017 23:50 3,0 C 3,3 C 1,1 C 97 % 11 lf 1003,6 hPa 0,0 l/m 0 min 2 min 0 W/m 29,3 km/h (5 Bft) 91,49 %
13.01.2017 23:52 3,0 C 3,3 C 1,7 C 97 % 10 lf 1003,5 hPa 0,0 l/m 0 min 2 min 0 W/m 27,2 km/h (4 Bft) 95,74 %
13.01.2017 23:54 3,1 C 3,3 C 1,7 C 97 % 10 lf 1003,6 hPa 0,0 l/m 0 min 2 min 0 W/m 39,7 km/h (6 Bft) 87,23 %
13.01.2017 23:56 3,1 C 3,3 C 1,7 C 97 % 9 lf 1003,7 hPa 0,0 l/m 0 min 2 min 0 W/m 27,2 km/h (4 Bft) 93,48 %
13.01.2017 23:58 3,1 C 3,3 C 1,7 C 97 % 7 lf 1003,7 hPa 0,0 l/m 0 min 2 min 0 W/m 35,6 km/h (5 Bft) 91,49 %
_ Min-Zeit 20:14 19:56 04:24 15:26 14:38 01:36 - - - - 01:08 00:02
Minimum _ 0,5 C 0,0 C -1,1 C 86 % 0 lf 979,3 hPa - - - - 8,4 km/h (2 Bft) 11,76 %
_ Max-Zeit 00:56 14:20 00:40 23:10 00:00 23:56 00:06 12:26 00:00 13:06 04:50 01:14
Maximum _ 4,2 C 8,3 C 2,8 C 98 % 15 lf 1003,7 hPa 0,2 l/m 2 min 2 min 332 W/m 71,1 km/h
W-NW (8 Bft)
100,00 %
Durchschnitt _ 1,9 C 2,2 C 0,5 C 95 % 12 lf 996,0 hPa #6,0 l/m #2:16 h #11:52 h 81 W/m 27,2 km/h (4 Bft) 95,91 %
© 2017 W. Hausmann